M I D A S
Marine Information and Data Acquisition System
Tripno 1199 of the Zeeleeuw from 2006-12-12 07:46:21 to 2006-12-12 12:17:22
Back to CruiseResearch ActivitiesStationsMapUnderway DataData graphs

EquipmentUnitsComment
TimeDGPSUTC
LatitudeDGPSDM.mWGS84
LongitudeDGPSDM.mWGS84
TemperatureSBE03/SBE38deg celciusITS90
ConductivitySBE21S/mITS90
SalinitySBE21 Practical Salinity Units
ChlorophylAChelsea fluorimeterg/lCalibrated in Aceton
Missing or incorrect values are displayed as -999
Sea surface data collected by the RV Zeeleeuw from 2006-12-12 07:45:14 to 2006-12-12 13:19:31
                                                                                    Next 1000 lines
Time Latitude Longitude Temperature Conductivity Salinity ChlorophylA
2006-12-12 07:46:28 51°13.619 2°56.022 15.9478 0.002314 0.018445 -2.871232
2006-12-12 07:46:33 51°13.621 2°56.013 15.9194 0.002314 0.018445 -2.871232
2006-12-12 07:46:38 51°13.624 2°56.003 15.9324 0.002314 0.018445 -2.871232
2006-12-12 07:46:43 51°13.626 2°55.993 15.8895 0.002314 0.018445 -2.871232
2006-12-12 07:46:48 51°13.629 2°55.982 16.0403 0.002314 0.018445 -2.871232
2006-12-12 07:46:53 51°13.632 2°55.972 16.0604 0.002314 0.018445 -2.871232
2006-12-12 07:46:58 51°13.635 2°55.962 16.0457 0.002314 0.018444 -2.871232
2006-12-12 07:47:03 51°13.638 2°55.952 16.0347 0.002314 0.018444 -2.871232
2006-12-12 07:47:08 51°13.64 2°55.942 15.9959 0.002314 0.018444 -2.871232
2006-12-12 07:47:13 51°13.643 2°55.932 16.0184 0.002314 0.018444 -2.871232
2006-12-12 07:47:18 51°13.646 2°55.922 15.9616 0.002314 0.018444 -2.871232
2006-12-12 07:47:23 51°13.649 2°55.911 15.9552 0.002314 0.018444 -2.871232
2006-12-12 07:47:28 51°13.652 2°55.901 16.0198 0.002314 0.018444 -2.871232
2006-12-12 07:47:33 51°13.655 2°55.89 16.0786 0.002314 0.018444 -2.871232
2006-12-12 07:47:38 51°13.658 2°55.879 16.1028 0.002314 0.018444 -2.871232
2006-12-12 07:47:43 51°13.661 2°55.869 16.0761 0.002314 0.018444 -2.871232
2006-12-12 07:47:48 51°13.664 2°55.859 16.0833 0.002314 0.018444 -2.871232
2006-12-12 07:47:53 51°13.667 2°55.85 16.076 0.002314 0.018444 -2.871232
2006-12-12 07:47:58 51°13.671 2°55.841 16.0671 0.002314 0.018444 -2.871232
2006-12-12 07:48:03 51°13.674 2°55.832 15.984 0.002314 0.018444 -2.871232
2006-12-12 07:48:08 51°13.678 2°55.824 15.9705 0.002314 0.018444 -2.871232
2006-12-12 07:48:13 51°13.682 2°55.816 15.9785 0.002314 0.018444 -2.871232
2006-12-12 07:48:18 51°13.686 2°55.808 15.9653 0.002314 0.018443 -2.871232
2006-12-12 07:48:23 51°13.689 2°55.8 15.9671 0.002314 0.018443 -2.871232
2006-12-12 07:48:28 51°13.693 2°55.792 15.9693 0.002314 0.018443 -2.871232
2006-12-12 07:48:33 51°13.698 2°55.785 15.9811 0.002314 0.018443 -2.871232
2006-12-12 07:48:38 51°13.702 2°55.778 15.9996 0.002314 0.018443 -2.871232
2006-12-12 07:48:43 51°13.706 2°55.771 15.9592 0.002314 0.018443 -2.871232
2006-12-12 07:48:48 51°13.711 2°55.765 15.9751 0.002314 0.018443 -2.871232
2006-12-12 07:48:53 51°13.716 2°55.758 15.9767 0.002314 0.018443 -2.871232
2006-12-12 07:48:58 51°13.721 2°55.751 15.98 0.002314 0.018443 -2.871232
2006-12-12 07:49:03 51°13.726 2°55.745 15.9789 0.002314 0.018443 -2.871232
2006-12-12 07:49:08 51°13.731 2°55.738 15.9784 0.002314 0.018443 -2.871232
2006-12-12 07:49:13 51°13.737 2°55.732 15.9818 0.002314 0.018443 -2.871232
2006-12-12 07:49:18 51°13.743 2°55.726 15.9889 0.002314 0.018443 -2.871232
2006-12-12 07:49:23 51°13.749 2°55.72 15.988 0.002314 0.018443 -2.871232
2006-12-12 07:49:28 51°13.755 2°55.714 15.9846 0.002314 0.018443 -2.871232
2006-12-12 07:49:33 51°13.761 2°55.708 15.9737 0.002314 0.018443 -2.871232
2006-12-12 07:49:38 51°13.767 2°55.702 15.9811 0.002314 0.018442 -2.871232
2006-12-12 07:49:43 51°13.774 2°55.695 15.8686 0.002314 0.018442 -2.871232
2006-12-12 07:49:48 51°13.78 2°55.689 15.9716 0.002314 0.018442 -2.871232
2006-12-12 07:49:53 51°13.786 2°55.682 15.9425 0.002314 0.018442 -2.871232
2006-12-12 07:49:58 51°13.793 2°55.675 15.9402 0.002314 0.018442 -2.871232
2006-12-12 07:50:03 51°13.8 2°55.668 15.9096 0.002314 0.018442 -2.871232
2006-12-12 07:50:08 51°13.807 2°55.66 16.0192 0.002314 0.018442 -2.871232
2006-12-12 07:50:13 51°13.813 2°55.653 15.9562 0.002314 0.018442 -2.871232
2006-12-12 07:50:18 51°13.82 2°55.646 16.0865 0.002314 0.018442 -2.871232
2006-12-12 07:50:23 51°13.827 2°55.639 16.0651 0.002314 0.018442 -2.871232
2006-12-12 07:50:28 51°13.833 2°55.631 16.0774 0.002314 0.018442 -2.871232
2006-12-12 07:50:33 51°13.839 2°55.624 16.0398 0.002314 0.018442 -2.871232
2006-12-12 07:50:38 51°13.846 2°55.618 16.0578 0.002314 0.018442 -2.871232
2006-12-12 07:50:43 51°13.853 2°55.612 16.0415 0.002314 0.018442 -2.871232
2006-12-12 07:50:48 51°13.86 2°55.607 16.0732 0.002314 0.018442 -2.871232
2006-12-12 07:50:53 51°13.867 2°55.602 16.0422 0.002314 0.018442 -2.871232
2006-12-12 07:50:58 51°13.874 2°55.599 16.0418 0.002314 0.018441 -2.871232
2006-12-12 07:51:03 51°13.881 2°55.596 16.0353 0.002314 0.018441 -2.871232
2006-12-12 07:51:08 51°13.888 2°55.593 16.04 0.002314 0.018441 -2.871232
2006-12-12 07:51:13 51°13.896 2°55.592 16.0327 0.002314 0.018441 -2.871232
2006-12-12 07:51:18 51°13.903 2°55.591 16.0322 0.002314 0.018441 -2.871232
2006-12-12 07:51:23 51°13.911 2°55.59 16.028 0.002314 0.018441 -2.871232
2006-12-12 07:51:28 51°13.918 2°55.591 16.0412 0.002314 0.018441 -2.871232
2006-12-12 07:51:33 51°13.925 2°55.593 16.1082 0.002314 0.018441 -2.871232
2006-12-12 07:51:38 51°13.931 2°55.594 16.1287 0.002314 0.018441 -2.871232
2006-12-12 07:51:43 51°13.937 2°55.597 16.0714 0.002314 0.018441 -2.871232
2006-12-12 07:51:48 51°13.943 2°55.599 16.0623 0.002314 0.018441 -2.871232
2006-12-12 07:51:53 51°13.949 2°55.602 16.0372 0.002314 0.018441 -2.871232
2006-12-12 07:51:58 51°13.954 2°55.605 16.0486 0.002314 0.018441 -2.871232
2006-12-12 07:52:03 51°13.958 2°55.607 16.0706 0.002314 0.018441 -2.871232
2006-12-12 07:52:08 51°13.962 2°55.61 16.035 0.002314 0.01844 -2.871232
2006-12-12 07:52:13 51°13.965 2°55.612 16.015 0.002314 0.01844 -2.871232
2006-12-12 07:52:17 51°13.967 2°55.614 16.0511 0.002314 0.01844 -2.871232
2006-12-12 07:52:22 51°13.969 2°55.615 16.0784 0.002314 0.01844 -2.871232
2006-12-12 07:52:27 51°13.971 2°55.616 16.0749 0.002314 0.01844 -2.871232
2006-12-12 07:52:33 51°13.972 2°55.615 16.0513 0.002314 0.01844 -2.871232
2006-12-12 07:52:38 51°13.972 2°55.614 11.7473 0.002314 0.01844 -2.871232
2006-12-12 07:52:43 51°13.972 2°55.612 11.176 0.002314 0.018432 -2.871232
2006-12-12 07:52:48 51°13.972 2°55.609 10.5285 0.178813 1.007682 -2.871232
2006-12-12 07:52:53 51°13.972 2°55.606 10.2406 0.178813 1.007682 -2.871232
2006-12-12 07:52:58 51°13.972 2°55.602 10.1048 3.080983 21.40611 -2.871232
2006-12-12 07:53:02 51°13.972 2°55.599 10.0321 3.131073 22.365146 -2.871232
2006-12-12 07:53:07 51°13.972 2°55.594 9.9946 3.028977 22.811402 -2.871232
2006-12-12 07:53:12 51°13.973 2°55.589 9.8956 2.788631 21.625262 -2.871232
2006-12-12 07:53:17 51°13.974 2°55.583 9.927 2.817698 22.549626 -2.871232
2006-12-12 07:53:22 51°13.976 2°55.577 9.8429 2.912436 23.947228 -2.871232
2006-12-12 07:53:27 51°13.978 2°55.571 9.7888 2.912436 23.947228 -2.871232
2006-12-12 07:53:32 51°13.981 2°55.564 9.787 2.974811 24.855177 -2.871232
2006-12-12 07:53:37 51°13.984 2°55.558 9.7344 2.974711 25.047326 -2.871232
2006-12-12 07:53:42 51°13.989 2°55.551 9.6914 3.000263 25.42588 -2.871232
2006-12-12 07:53:47 51°13.994 2°55.544 9.6461 2.985265 25.373311 -2.871232
2006-12-12 07:53:52 51°14.001 2°55.537 9.6191 2.985265 25.373311 -2.871232
2006-12-12 07:53:56 51°14.006 2°55.531 9.6374 2.992921 25.519209 -2.871232
2006-12-12 07:54:01 51°14.014 2°55.522 9.5765 3.016715 25.797179 -2.871232
2006-12-12 07:54:06 51°14.024 2°55.512 9.562 3.013716 25.818478 -2.871232
2006-12-12 07:54:11 51°14.034 2°55.502 9.554 2.995923 25.691244 -2.871232
2006-12-12 07:54:16 51°14.044 2°55.491 9.5276 2.971304 25.499123 -2.871232
2006-12-12 07:54:21 51°14.056 2°55.479 9.5285 2.971304 25.499123 -2.871232
2006-12-12 07:54:26 51°14.068 2°55.468 9.5341 2.944101 25.282832 -2.871232
2006-12-12 07:54:31 51°14.081 2°55.457 9.5161 2.920208 25.089747 -2.871232
2006-12-12 07:54:36 51°14.095 2°55.446 9.5094 2.91121 25.031059 -2.871232
2006-12-12 07:54:41 51°14.109 2°55.434 9.4962 2.904281 24.987372 -2.871232
2006-12-12 07:54:45 51°14.121 2°55.425 9.5042 2.900455 24.969833 -2.871232
2006-12-12 07:54:51 51°14.138 2°55.409 9.5215 2.898697 24.966733 -2.871232
2006-12-12 07:54:56 51°14.153 2°55.396 9.4941 2.898697 24.966733 -2.871232
2006-12-12 07:55:00 51°14.165 2°55.385 9.5012 2.89518 24.941763 -2.871232
2006-12-12 07:55:05 51°14.18 2°55.371 9.4958 2.905109 25.054227 -2.871232
2006-12-12 07:55:10 51°14.195 2°55.355 9.4629 2.915039 25.162981 -2.871232
2006-12-12 07:55:15 51°14.209 2°55.338 9.4674 2.911212 25.129184 -2.871232
2006-12-12 07:55:20 51°14.224 2°55.321 9.4567 2.911212 25.129184 -2.871232
2006-12-12 07:55:25 51°14.238 2°55.303 9.4471 2.927036 25.280445 -2.871232
2006-12-12 07:55:30 51°14.251 2°55.284 9.4382 2.92745 25.290951 -2.871232
2006-12-12 07:55:34 51°14.261 2°55.267 9.4412 2.952481 25.534114 -2.871232
2006-12-12 07:55:40 51°14.277 2°55.242 9.4518 2.947516 25.498697 -2.871232
2006-12-12 07:55:45 51°14.289 2°55.221 9.4429 2.921865 25.266643 -2.871232
2006-12-12 07:55:49 51°14.299 2°55.204 9.4331 2.921865 25.266643 -2.871232
2006-12-12 07:55:54 51°14.311 2°55.182 9.4662 2.926727 25.320887 -2.871232
2006-12-12 07:55:59 51°14.323 2°55.16 9.4596 2.89332 25.01359 -2.871232
2006-12-12 07:56:05 51°14.338 2°55.133 9.4441 2.911213 25.188703 -2.871232
2006-12-12 07:56:10 51°14.35 2°55.111 9.4591 2.89725 25.058859 -2.871232
2006-12-12 07:56:14 51°14.361 2°55.094 9.4702 2.904904 25.135091 -2.871232
2006-12-12 07:56:20 51°14.376 2°55.068 9.4669 2.904904 25.135091 -2.871232
2006-12-12 07:56:25 51°14.389 2°55.047 9.4973 2.9078 25.165984 -2.871232
2006-12-12 07:56:30 51°14.403 2°55.027 9.5473 2.896837 25.057525 -2.871232
2006-12-12 07:56:34 51°14.415 2°55.012 9.5369 2.926727 25.340003 -2.871232
2006-12-12 07:56:40 51°14.433 2°54.99 9.5482 2.93314 25.403202 -2.871232
2006-12-12 07:56:45 51°14.45 2°54.974 9.5766 2.948758 25.549721 -2.871232
2006-12-12 07:56:50 51°14.466 2°54.957 9.5966 2.965929 25.708478 -2.871232
2006-12-12 07:56:54 51°14.479 2°54.944 9.6102 2.965929 25.708478 -2.871232
2006-12-12 07:57:00 51°14.498 2°54.924 9.6315 2.995306 25.975982 -2.871232
2006-12-12 07:57:04 51°14.511 2°54.911 9.6288 3.036169 26.34537 -2.871232
2006-12-12 07:57:10 51°14.531 2°54.891 9.6429 3.06462 26.606968 -2.871232
2006-12-12 07:57:15 51°14.547 2°54.876 9.6685 3.097212 26.904936 -2.871232
2006-12-12 07:57:20 51°14.564 2°54.86 9.6824 3.097212 26.904936 -2.871232
2006-12-12 07:57:24 51°14.577 2°54.848 9.7068 3.13798 27.281587 -2.871232
2006-12-12 07:57:29 51°14.594 2°54.833 9.7209 3.181857 27.692762 -2.871232
2006-12-12 07:57:35 51°14.615 2°54.814 9.7189 3.217355 28.022254 -2.871232
2006-12-12 07:57:40 51°14.631 2°54.798 9.725 3.255651 28.378981 -2.871232
2006-12-12 07:57:44 51°14.645 2°54.786 9.7435 3.294985 28.743815 -2.871232
2006-12-12 07:57:49 51°14.662 2°54.771 9.7238 3.294985 28.743815 -2.871232
2006-12-12 07:57:55 51°14.683 2°54.754 9.7248 3.326868 29.036903 -2.871232
2006-12-12 07:58:00 51°14.7 2°54.74 9.7031 3.360721 29.347654 -2.871232
2006-12-12 07:58:05 51°14.718 2°54.726 9.7054 3.370142 29.425107 -2.871232
2006-12-12 07:58:09 51°14.732 2°54.716 9.6754 3.399961 29.705326 -2.871232
2006-12-12 07:58:14 51°14.749 2°54.702 9.6763 3.414353 29.839348 -2.871232
2006-12-12 07:58:20 51°14.771 2°54.685 9.6445 3.423568 29.927107 -2.871232
2006-12-12 07:58:25 51°14.788 2°54.67 9.629 3.423568 29.927107 -2.871232
2006-12-12 07:58:30 51°14.805 2°54.656 9.6151 3.419633 29.892068 -2.871232
2006-12-12 07:58:34 51°14.819 2°54.644 9.6169 3.426675 29.968079 -2.871232
2006-12-12 07:58:40 51°14.839 2°54.625 9.6492 3.413732 29.852649 -2.871232
2006-12-12 07:58:45 51°14.856 2°54.609 9.6912 3.428125 30.00545 -2.871232
2006-12-12 07:58:49 51°14.869 2°54.597 9.7425 3.407727 29.82379 -2.871232
2006-12-12 07:58:55 51°14.889 2°54.578 9.7809 3.407727 29.82379 -2.871232
2006-12-12 07:59:00 51°14.906 2°54.563 9.8275 3.417563 29.937105 -2.871232
2006-12-12 07:59:05 51°14.923 2°54.548 9.8704 3.398098 29.76048 -2.871232
2006-12-12 07:59:10 51°14.94 2°54.532 9.903 3.379979 29.580808 -2.871232
2006-12-12 07:59:14 51°14.953 2°54.52 9.9362 3.417253 29.919338 -2.871232
2006-12-12 07:59:20 51°14.973 2°54.501 9.9524 3.417253 29.919338 -2.871232
2006-12-12 07:59:24 51°14.986 2°54.488 9.967 3.439204 30.100529 -2.871232
2006-12-12 07:59:30 51°15.006 2°54.47 9.9791 3.453908 30.20261 -2.871232
2006-12-12 07:59:35 51°15.022 2°54.455 9.9893 3.451629 30.136852 -2.871232
2006-12-12 07:59:40 51°15.039 2°54.439 9.9974 3.472961 30.310648 -2.871232
2006-12-12 07:59:44 51°15.052 2°54.427 10.0081 3.512831 30.665388 -2.871232
2006-12-12 07:59:49 51°15.069 2°54.412 10.02 3.512831 30.665388 -2.871232
2006-12-12 07:59:55 51°15.089 2°54.394 10.027 3.536859 30.868879 -2.871232
2006-12-12 08:00:00 51°15.106 2°54.378 10.0315 3.553844 31.01197 -2.871232
2006-12-12 08:00:04 51°15.119 2°54.366 10.0303 3.559334 31.049188 -2.871232
2006-12-12 08:00:09 51°15.136 2°54.351 10.0415 3.573731 31.175076 -2.871232
2006-12-12 08:00:14 51°15.153 2°54.335 10.0424 3.577149 31.196165 -2.871232
2006-12-12 08:00:20 51°15.173 2°54.317 10.0537 3.581085 31.222258 -2.871232
2006-12-12 08:00:25 51°15.19 2°54.301 10.0551 3.581085 31.222258 -2.871232
2006-12-12 08:00:29 51°15.203 2°54.289 10.0596 3.584192 31.243525 -2.871232
2006-12-12 08:00:34 51°15.22 2°54.273 10.0538 3.586885 31.263984 -2.871232
2006-12-12 08:00:40 51°15.24 2°54.254 10.0556 3.587196 31.260569 -2.871232
2006-12-12 08:00:45 51°15.257 2°54.238 10.0591 3.594861 31.328353 -2.871232
2006-12-12 08:00:50 51°15.274 2°54.222 10.067 3.594861 31.328353 -2.871232
2006-12-12 08:00:54 51°15.287 2°54.209 10.0718 3.596933 31.34278 -2.871232
2006-12-12 08:01:00 51°15.307 2°54.191 10.0672 3.591753 31.287825 -2.871232
2006-12-12 08:01:04 51°15.321 2°54.177 10.0748 3.59569 31.322706 -2.871232
2006-12-12 08:01:10 51°15.341 2°54.159 10.0824 3.596207 31.325307 -2.871232
2006-12-12 08:01:14 51°15.354 2°54.146 10.0858 3.603666 31.396692 -2.871232
2006-12-12 08:01:20 51°15.375 2°54.128 10.0819 3.603666 31.396692 -2.871232
2006-12-12 08:01:25 51°15.392 2°54.112 10.0865 3.608741 31.443414 -2.871232
2006-12-12 08:01:30 51°15.409 2°54.096 10.0908 3.588853 31.246927 -2.871232
2006-12-12 08:01:34 51°15.423 2°54.083 10.0939 3.613196 31.480083 -2.871232
2006-12-12 08:01:40 51°15.443 2°54.065 10.0932 3.613817 31.480448 -2.871232
2006-12-12 08:01:44 51°15.456 2°54.052 10.0952 3.599625 31.339091 -2.871232
2006-12-12 08:01:50 51°15.477 2°54.034 10.091 3.582016 31.16642 -2.871232
2006-12-12 08:01:55 51°15.494 2°54.018 10.0872 3.582016 31.16642 -2.871232
2006-12-12 08:02:00 51°15.51 2°54.002 10.0833 3.596518 31.303414 -2.871232
2006-12-12 08:02:04 51°15.524 2°53.99 10.0886 3.617339 31.501617 -2.871232
2006-12-12 08:02:09 51°15.541 2°53.975 10.086 3.6191 31.517853 -2.871232
2006-12-12 08:02:15 51°15.561 2°53.956 10.0905 3.620136 31.52707 -2.871232
2006-12-12 08:02:20 51°15.578 2°53.941 10.0836 3.620136 31.52707 -2.871232
2006-12-12 08:02:24 51°15.591 2°53.928 10.093 3.621379 31.539102 -2.871232
2006-12-12 08:02:29 51°15.608 2°53.914 10.0959 3.615371 31.48257 -2.871232
2006-12-12 08:02:34 51°15.625 2°53.898 10.0928 3.619204 31.520471 -2.871232
2006-12-12 08:02:40 51°15.646 2°53.88 10.0959 3.623244 31.558769 -2.871232
2006-12-12 08:02:45 51°15.662 2°53.866 10.105 3.626248 31.589472 -2.871232
2006-12-12 08:02:50 51°15.679 2°53.851 10.1039 3.626248 31.589472 -2.871232
2006-12-12 08:02:54 51°15.693 2°53.838 10.1093 3.625937 31.588893 -2.871232
2006-12-12 08:02:59 51°15.709 2°53.823 10.1067 3.623762 31.565402 -2.871232
2006-12-12 08:03:04 51°15.726 2°53.809 10.116 3.626248 31.587852 -2.871232
2006-12-12 08:03:10 51°15.746 2°53.791 10.1121 3.626144 31.58442 -2.871232
2006-12-12 08:03:14 51°15.76 2°53.778 10.1161 3.629148 31.610263 -2.871232
2006-12-12 08:03:20 51°15.78 2°53.761 10.119 3.629148 31.610263 -2.871232
2006-12-12 08:03:25 51°15.797 2°53.746 10.1249 3.629666 31.612036 -2.871232
2006-12-12 08:03:30 51°15.814 2°53.732 10.1229 3.613402 31.452235 -2.871232
2006-12-12 08:03:35 51°15.831 2°53.718 10.1394 3.619203 31.505124 -2.871232
2006-12-12 08:03:40 51°15.847 2°53.703 10.1262 3.633395 31.64003 -2.871232
2006-12-12 08:03:44 51°15.86 2°53.691 10.1298 3.634742 31.650632 -2.871232
2006-12-12 08:03:49 51°15.877 2°53.676 10.1277 3.631738 31.619125 -2.871232
2006-12-12 08:03:54 51°15.894 2°53.66 10.1314 3.631738 31.619125 -2.871232
2006-12-12 08:04:00 51°15.914 2°53.642 10.1338 3.633499 31.633737 -2.871232
2006-12-12 08:04:05 51°15.93 2°53.626 10.1381 3.632774 31.624289 -2.871232
2006-12-12 08:04:10 51°15.947 2°53.611 10.1502 3.63267 31.620856 -2.871232
2006-12-12 08:04:15 51°15.964 2°53.596 10.1442 3.628526 31.580768 -2.871232
2006-12-12 08:04:20 51°15.981 2°53.581 10.1469 3.628526 31.580768 -2.871232
2006-12-12 08:04:24 51°15.995 2°53.569 10.146 3.63671 31.659949 -2.871232
2006-12-12 08:04:29 51°16.011 2°53.554 10.1517 3.64303 31.719484 -2.871232
2006-12-12 08:04:35 51°16.032 2°53.537 10.1511 3.638782 31.675131 -2.871232
2006-12-12 08:04:40 51°16.048 2°53.522 10.1541 3.6393 31.674465 -2.871232
2006-12-12 08:04:44 51°16.062 2°53.51 10.154 3.618581 31.470079 -2.871232
2006-12-12 08:04:50 51°16.082 2°53.491 10.1548 3.618581 31.470079 -2.871232
2006-12-12 08:04:54 51°16.095 2°53.479 10.1569 3.64075 31.682006 -2.871232
2006-12-12 08:05:00 51°16.116 2°53.46 10.1651 3.635571 31.631907 -2.871232
2006-12-12 08:05:05 51°16.133 2°53.444 10.1601 3.63785 31.652328 -2.871232
2006-12-12 08:05:10 51°16.149 2°53.429 10.1634 3.643547 31.705818 -2.871232
2006-12-12 08:05:14 51°16.163 2°53.417 10.1655 3.643133 31.700998 -2.871232
2006-12-12 08:05:20 51°16.183 2°53.398 10.1693 3.641475 31.684154 -2.871232
2006-12-12 08:05:25 51°16.2 2°53.383 10.1711 3.641475 31.684154 -2.871232
2006-12-12 08:05:30 51°16.216 2°53.368 10.1726 3.643547 31.70176 -2.871232
2006-12-12 08:05:34 51°16.23 2°53.355 10.1716 3.6393 31.658251 -2.871232
2006-12-12 08:05:40 51°16.25 2°53.337 10.1736 3.651835 31.778682 -2.871232
2006-12-12 08:05:44 51°16.263 2°53.325 10.1744 3.649141 31.750187 -2.871232
2006-12-12 08:05:50 51°16.283 2°53.306 10.1765 3.657533 31.828926 -2.871232
2006-12-12 08:05:55 51°16.3 2°53.292 10.1744 3.657533 31.828926 -2.871232
2006-12-12 08:06:00 51°16.317 2°53.276 10.1775 3.636295 31.62111 -2.871232
2006-12-12 08:06:04 51°16.33 2°53.265 10.1801 3.648623 31.737866 -2.871232
2006-12-12 08:06:09 51°16.347 2°53.25 10.1808 3.647587 31.727037 -2.871232
2006-12-12 08:06:15 51°16.367 2°53.232 10.1812 3.662609 31.871524 -2.871232
2006-12-12 08:06:20 51°16.384 2°53.217 10.1815 3.662609 31.871524 -2.871232
2006-12-12 08:06:25 51°16.4 2°53.203 10.1866 3.664785 31.892575 -2.871232
2006-12-12 08:06:30 51°16.417 2°53.188 10.1861 3.665303 31.895955 -2.871232
2006-12-12 08:06:35 51°16.434 2°53.173 10.1916 3.644479 31.693743 -2.871232
2006-12-12 08:06:40 51°16.451 2°53.159 10.193 3.6681 31.920574 -2.871232
2006-12-12 08:06:44 51°16.465 2°53.147 10.1994 3.661988 31.860618 -2.871232
2006-12-12 08:06:49 51°16.482 2°53.131 10.1971 3.661988 31.860618 -2.871232
2006-12-12 08:06:54 51°16.499 2°53.117 10.1981 3.661677 31.856797 -2.871232
2006-12-12 08:07:00 51°16.519 2°53.1 10.202 3.667996 31.915489 -2.871232
2006-12-12 08:07:04 51°16.533 2°53.087 10.2062 3.666132 31.894999 -2.871232
2006-12-12 08:07:10 51°16.553 2°53.07 10.2112 3.668204 31.912596 -2.871232
2006-12-12 08:07:14 51°16.567 2°53.058 10.2138 3.663438 31.863239 -2.871232
2006-12-12 08:07:20 51°16.587 2°53.041 10.2193 3.661159 31.839569 -2.871232
2006-12-12 08:07:25 51°16.604 2°53.026 10.2216 3.661159 31.839569 -2.871232
2006-12-12 08:07:29 51°16.618 2°53.014 10.2231 3.673902 31.961187 -2.871232
2006-12-12 08:07:35 51°16.639 2°52.996 10.2259 3.662609 31.848708 -2.871232
2006-12-12 08:07:40 51°16.656 2°52.982 10.2253 3.669447 31.911565 -2.871232
2006-12-12 08:07:45 51°16.673 2°52.968 10.2281 3.674212 31.953572 -2.871232
2006-12-12 08:07:49 51°16.687 2°52.956 10.2325 3.674212 31.953572 -2.871232
2006-12-12 08:07:54 51°16.704 2°52.943 10.2328 3.642718 31.645148 -2.871232
2006-12-12 08:08:00 51°16.725 2°52.926 10.2368 3.673487 31.939211 -2.871232
2006-12-12 08:08:05 51°16.741 2°52.912 10.236 3.653906 31.746729 -2.871232
2006-12-12 08:08:10 51°16.758 2°52.897 10.2341 3.681775 32.014453 -2.871232
2006-12-12 08:08:14 51°16.771 2°52.885 10.2349 3.680325 31.997974 -2.871232
2006-12-12 08:08:20 51°16.791 2°52.868 10.2353 3.680325 31.997974 -2.871232
2006-12-12 08:08:25 51°16.809 2°52.854 10.2386 3.684469 32.035593 -2.871232
2006-12-12 08:08:30 51°16.825 2°52.84 10.2379 3.684573 32.034139 -2.871232
2006-12-12 08:08:34 51°16.839 2°52.828 10.2394 3.679081 31.980233 -2.871232
2006-12-12 08:08:40 51°16.859 2°52.81 10.2372 3.674212 31.933166 -2.871232
2006-12-12 08:08:45 51°16.876 2°52.796 10.2411 3.6911 32.095623 -2.871232
2006-12-12 08:08:50 51°16.893 2°52.781 10.2411 3.6911 32.095623 -2.871232
2006-12-12 08:08:55 51°16.909 2°52.766 10.2469 3.690167 32.085785 -2.871232
2006-12-12 08:09:00 51°16.926 2°52.751 10.2483 3.693586 32.118032 -2.871232
2006-12-12 08:09:05 51°16.943 2°52.736 10.2444 3.690892 32.09034 -2.871232
2006-12-12 08:09:10 51°16.96 2°52.721 10.2487 3.691514 32.096351 -2.871232
2006-12-12 08:09:15 51°16.978 2°52.707 10.2525 3.695969 32.13944 -2.871232
2006-12-12 08:09:20 51°16.996 2°52.694 10.2594 3.695969 32.13944 -2.871232
2006-12-12 08:09:24 51°17.01 2°52.685 10.2603 3.69887 32.16586 -2.871232
2006-12-12 08:09:30 51°17.033 2°52.671 10.266 3.687888 32.056373 -2.871232
2006-12-12 08:09:34 51°17.047 2°52.662 10.27 3.699699 32.168948 -2.871232
2006-12-12 08:09:40 51°17.07 2°52.653 10.2699 3.685712 32.032885 -2.871232
2006-12-12 08:09:45 51°17.089 2°52.644 10.2734 3.698767 32.155823 -2.871232
2006-12-12 08:09:49 51°17.104 2°52.639 10.2811 3.698767 32.155823 -2.871232
2006-12-12 08:09:55 51°17.127 2°52.632 10.2809 3.706019 32.22268 -2.871232
2006-12-12 08:10:00 51°17.146 2°52.629 10.2851 3.700217 32.16246 -2.871232
2006-12-12 08:10:05 51°17.165 2°52.624 10.2877 3.703636 32.191412 -2.871232
2006-12-12 08:10:10 51°17.184 2°52.619 10.2924 3.71006 32.249418 -2.871232
2006-12-12 08:10:14 51°17.2 2°52.616 10.295 3.700217 32.150149 -2.871232
2006-12-12 08:10:20 51°17.223 2°52.61 10.2935 3.700217 32.150149 -2.871232
2006-12-12 08:10:24 51°17.238 2°52.609 10.2949 3.706226 32.202486 -2.871232
2006-12-12 08:10:30 51°17.261 2°52.606 10.2935 3.69514 32.092897 -2.871232
2006-12-12 08:10:35 51°17.281 2°52.604 10.2996 3.713375 32.26666 -2.871232
2006-12-12 08:10:40 51°17.3 2°52.602 10.2983 3.712857 32.25836 -2.871232
2006-12-12 08:10:44 51°17.316 2°52.601 10.3011 3.718038 32.30597 -2.871232
2006-12-12 08:10:50 51°17.339 2°52.599 10.3039 3.71752 32.299314 -2.871232
2006-12-12 08:10:54 51°17.355 2°52.598 10.3023 3.71752 32.299314 -2.871232
2006-12-12 08:11:00 51°17.378 2°52.596 10.3037 3.721768 32.339559 -2.871232
2006-12-12 08:11:05 51°17.398 2°52.595 10.3044 3.719799 32.318878 -2.871232
2006-12-12 08:11:10 51°17.417 2°52.595 10.3066 3.71379 32.259146 -2.871232
2006-12-12 08:11:15 51°17.437 2°52.595 10.3084 3.703636 32.159399 -2.871232
2006-12-12 08:11:20 51°17.457 2°52.593 10.314 3.703636 32.159399 -2.871232
2006-12-12 08:11:25 51°17.476 2°52.591 10.3111 3.719696 32.312932 -2.871232
2006-12-12 08:11:29 51°17.491 2°52.591 10.3086 3.691203 32.036886 -2.871232
2006-12-12 08:11:34 51°17.511 2°52.589 10.3098 3.708091 32.199154 -2.871232
2006-12-12 08:11:40 51°17.534 2°52.587 10.3126 3.720006 32.313465 -2.871232
2006-12-12 08:11:45 51°17.554 2°52.588 10.3101 3.705604 32.171853 -2.871232
2006-12-12 08:11:50 51°17.574 2°52.585 10.3107 3.705604 32.171853 -2.871232
2006-12-12 08:11:54 51°17.589 2°52.584 10.3098 3.716276 32.271657 -2.871232
2006-12-12 08:12:00 51°17.613 2°52.583 10.3115 3.713997 32.248813 -2.871232
2006-12-12 08:12:05 51°17.632 2°52.583 10.3145 3.716483 32.274482 -2.871232
2006-12-12 08:12:10 51°17.652 2°52.581 10.3111 3.720939 32.317534 -2.871232
2006-12-12 08:12:14 51°17.667 2°52.58 10.3136 3.718038 32.289499 -2.871232
2006-12-12 08:12:20 51°17.69 2°52.579 10.3119 3.722182 32.328725 -2.871232
2006-12-12 08:12:25 51°17.71 2°52.578 10.3143 3.722182 32.328725 -2.871232
2006-12-12 08:12:30 51°17.729 2°52.577 10.3094 3.723115 32.336913 -2.871232
2006-12-12 08:12:34 51°17.745 2°52.576 10.3102 3.717105 32.27802 -2.871232
2006-12-12 08:12:40 51°17.769 2°52.575 10.3161 3.726016 32.364953 -2.871232
2006-12-12 08:12:45 51°17.788 2°52.575 10.3153 3.727052 32.374142 -2.871232
2006-12-12 08:12:50 51°17.808 2°52.576 10.3182 3.723011 32.335087 -2.871232
2006-12-12 08:12:54 51°17.823 2°52.575 10.3221 3.723011 32.335087 -2.871232
2006-12-12 08:13:00 51°17.847 2°52.576 10.3184 3.731611 32.419039 -2.871232
2006-12-12 08:13:05 51°17.866 2°52.579 10.3189 3.719903 32.305874 -2.871232
2006-12-12 08:13:09 51°17.882 2°52.579 10.3219 3.72643 32.367308 -2.871232
2006-12-12 08:13:14 51°17.902 2°52.581 10.3182 3.724565 32.348459 -2.871232
2006-12-12 08:13:20 51°17.925 2°52.583 10.3202 3.724565 32.348459 -2.871232
2006-12-12 08:13:25 51°17.945 2°52.587 10.3217 3.719903 32.301757 -2.871232
2006-12-12 08:13:30 51°17.965 2°52.589 10.3275 3.728088 32.377555 -2.871232
2006-12-12 08:13:35 51°17.984 2°52.594 10.3278 3.702807 32.132549 -2.871232
2006-12-12 08:13:40 51°18.003 2°52.597 10.329 3.706122 32.162918 -2.871232
2006-12-12 08:13:45 51°18.022 2°52.603 10.3314 3.703221 32.135731 -2.871232
2006-12-12 08:13:50 51°18.042 2°52.608 10.3348 3.703221 32.135731 -2.871232
2006-12-12 08:13:54 51°18.057 2°52.614 10.3291 3.720421 32.301822 -2.871232
2006-12-12 08:14:00 51°18.079 2°52.625 10.3346 3.724254 32.337212 -2.871232
2006-12-12 08:14:04 51°18.094 2°52.635 10.3339 3.731093 32.401641 -2.871232
2006-12-12 08:14:10 51°18.114 2°52.652 10.3396 3.731404 32.40547 -2.871232
2006-12-12 08:14:14 51°18.128 2°52.663 10.3363 3.726845 32.359766 -2.871232
2006-12-12 08:14:20 51°18.148 2°52.683 10.3337 3.713271 32.22702 -2.871232
2006-12-12 08:14:25 51°18.162 2°52.704 10.3354 3.713271 32.22702 -2.871232
2006-12-12 08:14:30 51°18.179 2°52.722 10.3431 3.726119 32.348637 -2.871232
2006-12-12 08:14:35 51°18.192 2°52.744 10.3373 3.705189 32.144906 -2.871232
2006-12-12 08:14:40 51°18.207 2°52.764 10.3413 3.725601 32.339513 -2.871232
2006-12-12 08:14:45 51°18.219 2°52.788 10.3366 3.720317 32.28519 -2.871232
2006-12-12 08:14:49 51°18.23 2°52.804 10.3329 3.720317 32.28519 -2.871232
2006-12-12 08:14:54 51°18.244 2°52.827 10.3307 3.721249 32.293371 -2.871232
2006-12-12 08:15:00 51°18.262 2°52.851 10.3345 3.716794 32.251177 -2.871232
2006-12-12 08:15:04 51°18.273 2°52.87 10.3349 3.720731 32.288369 -2.871232
2006-12-12 08:15:10 51°18.291 2°52.893 10.3364 3.712857 32.21317 -2.871232
2006-12-12 08:15:15 51°18.303 2°52.917 10.3401 3.709748 32.185628 -2.871232
2006-12-12 08:15:20 51°18.32 2°52.935 10.3379 3.709748 32.185628 -2.871232
2006-12-12 08:15:24 51°18.331 2°52.952 10.3305 3.714825 32.237099 -2.871232
2006-12-12 08:15:30 51°18.347 2°52.979 10.3318 3.700216 32.096914 -2.871232
2006-12-12 08:15:35 51°18.365 2°52.994 10.3462 3.717934 32.267934 -2.871232
2006-12-12 08:15:40 51°18.377 2°53.018 10.3364 3.699387 32.088917 -2.871232
2006-12-12 08:15:44 51°18.391 2°53.031 10.3568 3.710577 32.195269 -2.871232
2006-12-12 08:15:50 51°18.407 2°53.059 10.3447 3.710577 32.195269 -2.871232
2006-12-12 08:15:54 51°18.421 2°53.071 10.3531 3.718866 32.275294 -2.871232
2006-12-12 08:16:00 51°18.437 2°53.098 10.3432 3.711303 32.203911 -2.871232
2006-12-12 08:16:05 51°18.454 2°53.115 10.3459 3.725498 32.337689 -2.871232
2006-12-12 08:16:10 51°18.468 2°53.135 10.3386 3.734927 32.424646 -2.871232
2006-12-12 08:16:14 51°18.48 2°53.152 10.3298 3.735341 32.426999 -2.871232
2006-12-12 08:16:20 51°18.498 2°53.176 10.3396 3.732751 32.400324 -2.871232
2006-12-12 08:16:25 51°18.513 2°53.197 10.3357 3.732751 32.400324 -2.871232
2006-12-12 08:16:30 51°18.529 2°53.214 10.3302 3.726534 32.340282 -2.871232
2006-12-12 08:16:34 51°18.54 2°53.231 10.3345 3.729539 32.370125 -2.871232
2006-12-12 08:16:40 51°18.559 2°53.255 10.3298 3.726119 32.337927 -2.871232
2006-12-12 08:16:45 51°18.575 2°53.273 10.3331 3.733269 32.411932 -2.871232
2006-12-12 08:16:50 51°18.589 2°53.295 10.3335 3.737724 32.456636 -2.871232
2006-12-12 08:16:55 51°18.606 2°53.312 10.3381 3.737724 32.456636 -2.871232
2006-12-12 08:17:00 51°18.621 2°53.332 10.3326 3.737414 32.454459 -2.871232
2006-12-12 08:17:05 51°18.636 2°53.351 10.3366 3.736999 32.451281 -2.871232
2006-12-12 08:17:09 51°18.648 2°53.366 10.3309 3.740004 32.481977 -2.871232
2006-12-12 08:17:15 51°18.666 2°53.39 10.3311 3.738346 32.46678 -2.871232
2006-12-12 08:17:20 51°18.681 2°53.411 10.334 3.738346 32.46678 -2.871232
2006-12-12 08:17:24 51°18.695 2°53.424 10.3332 3.741973 32.501835 -2.871232
2006-12-12 08:17:30 51°18.712 2°53.449 10.3293 3.73959 32.477143 -2.871232
2006-12-12 08:17:34 51°18.724 2°53.465 10.3294 3.740004 32.481149 -2.871232
2006-12-12 08:17:40 51°18.742 2°53.489 10.3294 3.740211 32.483152 -2.871232
2006-12-12 08:17:45 51°18.757 2°53.508 10.3376 3.741662 32.500486 -2.871232
2006-12-12 08:17:50 51°18.771 2°53.53 10.3288 3.740522 32.48864 -2.871232
2006-12-12 08:17:55 51°18.787 2°53.549 10.3253 3.740522 32.48864 -2.871232
2006-12-12 08:18:00 51°18.803 2°53.566 10.3375 3.738346 32.467607 -2.871232
2006-12-12 08:18:04 51°18.814 2°53.583 10.3319 3.741248 32.496479 -2.871232
2006-12-12 08:18:10 51°18.832 2°53.606 10.3255 3.73959 32.481281 -2.871232
2006-12-12 08:18:15 51°18.846 2°53.628 10.3348 3.73959 32.481281 -2.871232
2006-12-12 08:18:20 51°18.862 2°53.645 10.3414 3.73959 32.481281 -2.871232
2006-12-12 08:18:25 51°18.876 2°53.666 10.3217 3.740626 32.492953 -2.871232
2006-12-12 08:18:29 51°18.889 2°53.681 10.3246 3.740004 32.486115 -2.871232
2006-12-12 08:18:35 51°18.908 2°53.703 10.3245 3.738968 32.474444 -2.871232
2006-12-12 08:18:40 51°18.924 2°53.722 10.3199 3.741248 32.498135 -2.871232
2006-12-12 08:18:45 51°18.94 2°53.741 10.3213 3.740004 32.483632 -2.871232
2006-12-12 08:18:49 51°18.952 2°53.755 10.3243 3.740004 32.483632 -2.871232
2006-12-12 08:18:54 51°18.967 2°53.775 10.3192 3.739693 32.4798 -2.871232
2006-12-12 08:19:00 51°18.986 2°53.796 10.321 3.737828 32.465909 -2.871232
2006-12-12 08:19:05 51°19.001 2°53.816 10.3262 3.731507 32.406472 -2.871232
2006-12-12 08:19:10 51°19.017 2°53.835 10.3193 3.727985 32.374078 -2.871232
2006-12-12 08:19:14 51°19.029 2°53.85 10.3183 3.729021 32.384916 -2.871232
2006-12-12 08:19:20 51°19.048 2°53.871 10.3187 3.729021 32.384916 -2.871232
2006-12-12 08:19:25 51°19.064 2°53.888 10.3255 3.73358 32.430632 -2.871232
2006-12-12 08:19:30 51°19.079 2°53.908 10.3188 3.736896 32.462685 -2.871232
2006-12-12 08:19:34 51°19.092 2°53.923 10.3259 3.736067 32.453844 -2.871232
2006-12-12 08:19:40 51°19.112 2°53.943 10.3354 3.735756 32.450839 -2.871232
2006-12-12 08:19:45 51°19.126 2°53.963 10.3176 3.739693 32.490561 -2.871232
2006-12-12 08:19:50 51°19.142 2°53.981 10.3214 3.734823 32.442651 -2.871232
2006-12-12 08:19:54 51°19.155 2°53.997 10.3188 3.734823 32.442651 -2.871232
2006-12-12 08:20:00 51°19.174 2°54.018 10.3192 3.727674 32.372724 -2.871232
2006-12-12 08:20:05 51°19.188 2°54.039 10.3263 3.721664 32.314657 -2.871232
2006-12-12 08:20:10 51°19.206 2°54.053 10.3283 3.726638 32.360238 -2.871232
2006-12-12 08:20:15 51°19.221 2°54.074 10.3197 3.729228 32.386919 -2.871232
2006-12-12 08:20:20 51°19.238 2°54.089 10.3314 3.729228 32.386919 -2.871232
2006-12-12 08:20:24 51°19.248 2°54.108 10.3225 3.728088 32.37838 -2.871232
2006-12-12 08:20:29 51°19.266 2°54.122 10.3222 3.720732 32.308118 -2.871232
2006-12-12 08:20:35 51°19.285 2°54.146 10.3222 3.733684 32.43246 -2.871232
2006-12-12 08:20:40 51°19.301 2°54.163 10.3215 3.725705 32.352876 -2.871232
2006-12-12 08:20:45 51°19.317 2°54.181 10.3228 3.725187 32.347046 -2.871232
2006-12-12 08:20:49 51°19.328 2°54.197 10.3168 3.725187 32.347046 -2.871232
2006-12-12 08:20:54 51°19.345 2°54.214 10.3163 3.724565 32.342688 -2.871232
2006-12-12 08:21:00 51°19.363 2°54.237 10.315 3.734823 32.441824 -2.871232
2006-12-12 08:21:05 51°19.377 2°54.258 10.313 3.732544 32.41979 -2.871232
2006-12-12 08:21:10 51°19.392 2°54.276 10.3099 3.733684 32.431634 -2.871232
2006-12-12 08:21:14 51°19.404 2°54.293 10.3168 3.733994 32.437118 -2.871232
2006-12-12 08:21:20 51°19.424 2°54.313 10.316 3.734616 32.44561 -2.871232
2006-12-12 08:21:25 51°19.438 2°54.333 10.3171 3.734616 32.44561 -2.871232
2006-12-12 08:21:30 51°19.453 2°54.352 10.3142 3.732337 32.423571 -2.871232
2006-12-12 08:21:34 51°19.465 2°54.367 10.3121 3.734098 32.441428 -2.871232
2006-12-12 08:21:40 51°19.482 2°54.392 10.3077 3.729643 32.400007 -2.871232
2006-12-12 08:21:45 51°19.499 2°54.409 10.3101 3.728606 32.389165 -2.871232
2006-12-12 08:21:50 51°19.514 2°54.429 10.3101 3.732544 32.427228 -2.871232
2006-12-12 08:21:54 51°19.527 2°54.443 10.3136 3.732544 32.427228 -2.871232
2006-12-12 08:22:00 51°19.545 2°54.466 10.3101 3.734513 32.447089 -2.871232
2006-12-12 08:22:05 51°19.561 2°54.485 10.3091 3.736999 32.473619 -2.871232
2006-12-12 08:22:10 51°19.577 2°54.505 10.3131 3.720524 32.316 -2.871232
2006-12-12 08:22:14 51°19.589 2°54.519 10.3192 3.719488 32.307634 -2.871232
2006-12-12 08:22:20 51°19.607 2°54.542 10.3153 3.719488 32.307634 -2.871232
2006-12-12 08:22:25 51°19.624 2°54.56 10.3084 3.718245 32.293971 -2.871232
2006-12-12 08:22:29 51°19.636 2°54.576 10.3027 3.734409 32.447742 -2.871232
2006-12-12 08:22:35 51°19.655 2°54.598 10.3067 3.72871 32.394296 -2.871232
2006-12-12 08:22:40 51°19.669 2°54.62 10.3089 3.725809 32.36625 -2.871232
2006-12-12 08:22:45 51°19.686 2°54.635 10.3106 3.725498 32.359945 -2.871232
2006-12-12 08:22:49 51°19.698 2°54.652 10.3112 3.725498 32.359945 -2.871232
2006-12-12 08:22:54 51°19.715 2°54.669 10.313 3.72871 32.389341 -2.871232
2006-12-12 08:23:00 51°19.732 2°54.695 10.3103 3.718349 32.293326 -2.871232
2006-12-12 08:23:05 51°19.75 2°54.71 10.3021 3.72871 32.395947 -2.871232
2006-12-12 08:23:10 51°19.764 2°54.729 10.2993 3.726741 32.377741 -2.871232
2006-12-12 08:23:14 51°19.775 2°54.747 10.297 3.724255 32.352876 -2.871232
2006-12-12 08:23:20 51°19.796 2°54.766 10.2967 3.716691 32.278953 -2.871232
2006-12-12 08:23:25 51°19.811 2°54.783 10.3043 3.716691 32.278953 -2.871232
2006-12-12 08:23:30 51°19.825 2°54.805 10.3012 3.716898 32.283424 -2.871232
2006-12-12 08:23:34 51°19.839 2°54.817 10.3005 3.714411 32.259395 -2.871232
2006-12-12 08:23:40 51°19.857 2°54.841 10.2973 3.728296 32.398549 -2.871232
2006-12-12 08:23:45 51°19.872 2°54.86 10.3011 3.727881 32.39702 -2.871232
2006-12-12 08:23:50 51°19.888 2°54.879 10.2936 3.727881 32.39702 -2.871232
2006-12-12 08:23:54 51°19.902 2°54.892 10.2993 3.729332 32.411875 -2.871232
2006-12-12 08:24:00 51°19.919 2°54.919 10.3028 3.723219 32.35276 -2.871232
2006-12-12 08:24:05 51°19.936 2°54.935 10.302 3.720214 32.323709 -2.871232
2006-12-12 08:24:10 51°19.949 2°54.958 10.2914 3.725187 32.37262 -2.871232
2006-12-12 08:24:14 51°19.964 2°54.97 10.2987 3.725084 32.371619 -2.871232
2006-12-12 08:24:20 51°19.981 2°54.995 10.2923 3.725084 32.371619 -2.871232
2006-12-12 08:24:25 51°19.997 2°55.013 10.2852 3.72384 32.360421 -2.871232
2006-12-12 08:24:29 51°20.01 2°55.029 10.293 3.724358 32.364605 -2.871232
2006-12-12 08:24:34 51°20.026 2°55.046 10.3038 3.712028 32.242946 -2.871232
2006-12-12 08:24:40 51°20.042 2°55.073 10.2904 3.724773 32.368613 -2.871232
2006-12-12 08:24:45 51°20.058 2°55.091 10.2895 3.728089 32.402329 -2.871232
2006-12-12 08:24:50 51°20.072 2°55.113 10.2889 3.728089 32.402329 -2.871232
2006-12-12 08:24:55 51°20.089 2°55.13 10.2907 3.726016 32.386418 -2.871232
2006-12-12 08:25:00 51°20.102 2°55.154 10.2928 3.723219 32.361838 -2.871232
2006-12-12 08:25:05 51°20.118 2°55.171 10.2883 3.722908 32.35553 -2.871232
2006-12-12 08:25:10 51°20.132 2°55.195 10.2872 3.720628 32.331838 -2.871232
2006-12-12 08:25:14 51°20.146 2°55.208 10.2948 3.723633 32.364196 -2.871232
2006-12-12 08:25:20 51°20.163 2°55.234 10.2905 3.728503 32.412952 -2.871232
2006-12-12 08:25:25 51°20.178 2°55.255 10.2827 3.728503 32.412952 -2.871232
2006-12-12 08:25:30 51°20.194 2°55.275 10.2874 3.720732 32.338614 -2.871232
2006-12-12 08:25:34 51°20.205 2°55.293 10.2883 3.715966 32.292527 -2.871232
2006-12-12 08:25:40 51°20.224 2°55.318 10.2864 3.723115 32.362488 -2.871232
2006-12-12 08:25:45 51°20.24 2°55.337 10.2835 3.726534 32.393908 -2.871232
2006-12-12 08:25:49 51°20.252 2°55.353 10.284 3.726534 32.393908 -2.871232
2006-12-12 08:25:54 51°20.266 2°55.376 10.2873 3.720317 32.334606 -2.871232
2006-12-12 08:26:00 51°20.285 2°55.399 10.2916 3.726534 32.396388 -2.871232
2006-12-12 08:26:05 51°20.298 2°55.421 10.2951 3.723219 32.365141 -2.871232
2006-12-12 08:26:09 51°20.311 2°55.437 10.2903 3.728192 32.414079 -2.871232
2006-12-12 08:26:14 51°20.326 2°55.458 10.2869 3.726431 32.397038 -2.871232
2006-12-12 08:26:20 51°20.343 2°55.484 10.2917 3.726431 32.397038 -2.871232
2006-12-12 08:26:24 51°20.354 2°55.503 10.2882 3.728296 32.415909 -2.871232
2006-12-12 08:26:30 51°20.371 2°55.53 10.2898 3.727156 32.404882 -2.871232
2006-12-12 08:26:35 51°20.385 2°55.554 10.2915 3.72353 32.368148 -2.871232
2006-12-12 08:26:40 51°20.398 2°55.577 10.2933 3.713997 32.273493 -2.871232
2006-12-12 08:26:44 51°20.409 2°55.595 10.2915 3.722804 32.357005 -2.871232
2006-12-12 08:26:50 51°20.424 2°55.625 10.2906 3.724462 32.372212 -2.871232
2006-12-12 08:26:54 51°20.436 2°55.642 10.297 3.724462 32.372212 -2.871232
2006-12-12 08:27:00 51°20.45 2°55.673 10.2982 3.724048 32.36903 -2.871232
2006-12-12 08:27:05 51°20.464 2°55.694 10.2966 3.725187 32.380053 -2.871232
2006-12-12 08:27:10 51°20.475 2°55.719 10.2908 3.721354 32.342151 -2.871232
2006-12-12 08:27:15 51°20.49 2°55.742 10.2925 3.723633 32.364196 -2.871232
2006-12-12 08:27:20 51°20.503 2°55.764 10.3005 3.727674 32.40328 -2.871232
2006-12-12 08:27:25 51°20.514 2°55.789 10.2936 3.727674 32.40328 -2.871232
2006-12-12 08:27:29 51°20.526 2°55.806 10.2982 3.718867 32.317281 -2.871232
2006-12-12 08:27:35 51°20.541 2°55.834 10.2941 3.706433 32.197096 -2.871232
2006-12-12 08:27:40 51°20.556 2°55.856 10.2945 3.726016 32.387244 -2.871232
2006-12-12 08:27:45 51°20.569 2°55.878 10.2996 3.726845 32.394435 -2.871232
2006-12-12 08:27:50 51°20.581 2°55.902 10.2961 3.726845 32.394435 -2.871232
2006-12-12 08:27:54 51°20.591 2°55.921 10.2991 3.731301 32.437534 -2.871232
2006-12-12 08:28:00 51°20.606 2°55.951 10.2993 3.724358 32.369559 -2.871232
2006-12-12 08:28:05 51°20.621 2°55.972 10.3016 3.725809 32.382762 -2.871232
2006-12-12 08:28:10 51°20.633 2°55.997 10.3008 3.725602 32.379932 -2.871232
2006-12-12 08:28:14 51°20.643 2°56.017 10.3011 3.722286 32.347043 -2.871232
2006-12-12 08:28:20 51°20.66 2°56.044 10.3302 3.722286 32.347043 -2.871232
2006-12-12 08:28:25 51°20.669 2°56.072 10.313 3.716276 32.288942 -2.871232
2006-12-12 08:28:30 51°20.682 2°56.096 10.3119 3.714411 32.270914 -2.871232
2006-12-12 08:28:34 51°20.691 2°56.116 10.3133 3.728503 32.404685 -2.871232
2006-12-12 08:28:40 51°20.705 2°56.145 10.3124 3.730264 32.421721 -2.871232
2006-12-12 08:28:45 51°20.717 2°56.17 10.3133 3.719696 32.316228 -2.871232
2006-12-12 08:28:50 51°20.729 2°56.194 10.3155 3.729953 32.403838 -2.871232
2006-12-12 08:28:55 51°20.741 2°56.218 10.3187 3.729953 32.403838 -2.871232
2006-12-12 08:29:00 51°20.751 2°56.244 10.3119 3.72643 32.368133 -2.871232
2006-12-12 08:29:04 51°20.762 2°56.262 10.3149 3.731715 32.421694 -2.871232
2006-12-12 08:29:10 51°20.777 2°56.29 10.3171 3.72757 32.382452 -2.871232
2006-12-12 08:29:15 51°20.79 2°56.313 10.317 3.728192 32.388461 -2.871232
2006-12-12 08:29:20 51°20.802 2°56.337 10.3183 3.728192 32.388461 -2.871232
2006-12-12 08:29:24 51°20.812 2°56.356 10.3163 3.729953 32.403838 -2.871232
2006-12-12 08:29:29 51°20.823 2°56.381 10.3161 3.730575 32.411501 -2.871232
2006-12-12 08:29:35 51°20.838 2°56.41 10.3198 3.730575 32.412327 -2.871232
2006-12-12 08:29:40 51°20.851 2°56.434 10.3195 3.736378 32.466779 -2.871232
2006-12-12 08:29:45 51°20.865 2°56.457 10.3279 3.734098 32.443082 -2.871232
2006-12-12 08:29:49 51°20.872 2°56.478 10.3267 3.734098 32.443082 -2.871232
2006-12-12 08:29:54 51°20.885 2°56.501 10.3234 3.736896 32.470133 -2.871232
2006-12-12 08:30:00 51°20.9 2°56.531 10.327 3.730057 32.404014 -2.871232
2006-12-12 08:30:05 51°20.913 2°56.554 10.3345 3.72757 32.380801 -2.871232
2006-12-12 08:30:10 51°20.923 2°56.579 10.336 3.733684 32.437421 -2.871232
2006-12-12 08:30:14 51°20.931 2°56.6 10.3349 3.721353 32.316596 -2.871232
2006-12-12 08:30:20 51°20.949 2°56.626 10.3459 3.733062 32.42893 -2.871232
2006-12-12 08:30:25 51°20.959 2°56.651 10.3337 3.733062 32.42893 -2.871232
2006-12-12 08:30:30 51°20.971 2°56.675 10.3356 3.737932 32.475186 -2.871232
2006-12-12 08:30:34 51°20.981 2°56.694 10.3357 3.742802 32.518962 -2.871232
2006-12-12 08:30:40 51°20.994 2°56.724 10.3354 3.736688 32.4582 -2.871232
2006-12-12 08:30:45 51°21.007 2°56.748 10.3409 3.738035 32.467912 -2.871232
2006-12-12 08:30:50 51°21.018 2°56.773 10.3425 3.740626 32.489642 -2.871232
2006-12-12 08:30:54 51°21.028 2°56.792 10.3382 3.740626 32.489642 -2.871232
2006-12-12 08:31:00 51°21.042 2°56.822 10.3413 3.73503 32.435561 -2.871232
2006-12-12 08:31:04 51°21.053 2°56.84 10.3369 3.740729 32.490643 -2.871232
2006-12-12 08:31:10 51°21.066 2°56.871 10.3383 3.725187 32.340453 -2.871232
2006-12-12 08:31:14 51°21.078 2°56.887 10.345 3.739486 32.476969 -2.871232
2006-12-12 08:31:20 51°21.091 2°56.917 10.3408 3.739486 32.476969 -2.871232
2006-12-12 08:31:25 51°21.104 2°56.941 10.3429 3.738968 32.46948 -2.871232
2006-12-12 08:31:30 51°21.115 2°56.966 10.3451 3.729539 32.379196 -2.871232
2006-12-12 08:31:34 51°21.126 2°56.984 10.3443 3.741144 32.491338 -2.871232
2006-12-12 08:31:40 51°21.138 2°57.017 10.3394 3.731507 32.399041 -2.871232
2006-12-12 08:31:45 51°21.15 2°57.039 10.3705 3.740419 32.482673 -2.871232
2006-12-12 08:31:50 51°21.159 2°57.067 10.3436 3.740419 32.482673 -2.871232
2006-12-12 08:31:55 51°21.172 2°57.093 10.3412 3.746739 32.54377 -2.871232
2006-12-12 08:32:00 51°21.185 2°57.115 10.3535 3.747879 32.55396 -2.871232
2006-12-12 08:32:05 51°21.192 2°57.141 10.3458 3.747879 32.552301 -2.871232
2006-12-12 08:32:09 51°21.201 2°57.162 10.3437 3.748915 32.560659 -2.871232
2006-12-12 08:32:14 51°21.213 2°57.189 10.3377 3.747983 32.549986 -2.871232
2006-12-12 08:32:20 51°21.227 2°57.221 10.3344 3.748397 32.55648 -2.871232
2006-12-12 08:32:24 51°21.235 2°57.242 10.3396 3.748397 32.55648 -2.871232
2006-12-12 08:32:30 51°21.248 2°57.271 10.3409 3.746636 32.538623 -2.871232
2006-12-12 08:32:34 51°21.256 2°57.294 10.3336 3.744771 32.520595 -2.871232
2006-12-12 08:32:40 51°21.273 2°57.32 10.3393 3.745807 32.532268 -2.871232
2006-12-12 08:32:45 51°21.285 2°57.343 10.3406 3.745392 32.529919 -2.871232
2006-12-12 08:32:50 51°21.296 2°57.368 10.3391 3.745392 32.529919 -2.871232
2006-12-12 08:32:54 51°21.305 2°57.388 10.3354 3.745392 32.532405 -2.871232
2006-12-12 08:33:00 51°21.319 2°57.418 10.3526 3.745807 32.537241 -2.871232
2006-12-12 08:33:05 51°21.329 2°57.443 10.3385 3.74591 32.539901 -2.871232
2006-12-12 08:33:10 51°21.34 2°57.468 10.3372 3.743424 32.51503 -2.871232
2006-12-12 08:33:14 51°21.35 2°57.489 10.3423 3.744149 32.519556 -2.871232
2006-12-12 08:33:20 51°21.364 2°57.516 10.3536 3.744149 32.519556 -2.871232
2006-12-12 08:33:25 51°21.373 2°57.543 10.3327 3.745496 32.533407 -2.871232
2006-12-12 08:33:30 51°21.384 2°57.569 10.3445 3.74218 32.49887 -2.871232
2006-12-12 08:33:35 51°21.393 2°57.594 10.3355 3.738139 32.458161 -2.871232
2006-12-12 08:33:40 51°21.404 2°57.619 10.3372 3.739486 32.472832 -2.871232
2006-12-12 08:33:45 51°21.417 2°57.643 10.3323 3.741869 32.49421 -2.871232
2006-12-12 08:33:50 51°21.428 2°57.668 10.3379 3.74332 32.507402 -2.871232
2006-12-12 08:33:54 51°21.435 2°57.689 10.3281 3.74332 32.507402 -2.871232
2006-12-12 08:34:00 51°21.45 2°57.719 10.3281 3.744045 32.516898 -2.871232
2006-12-12 08:34:05 51°21.461 2°57.744 10.3279 3.743113 32.510368 -2.871232
2006-12-12 08:34:10 51°21.473 2°57.769 10.3275 3.742698 32.508846 -2.871232
2006-12-12 08:34:15 51°21.485 2°57.793 10.3272 3.741558 32.497 -2.871232
2006-12-12 08:34:20 51°21.495 2°57.818 10.326 3.741248 32.494823 -2.871232
2006-12-12 08:34:25 51°21.505 2°57.841 10.3267 3.741248 32.494823 -2.871232
2006-12-12 08:34:30 51°21.515 2°57.863 10.3266 3.74332 32.518999 -2.871232
2006-12-12 08:34:34 51°21.522 2°57.881 10.3274 3.743838 32.525666 -2.871232
2006-12-12 08:34:40 51°21.531 2°57.905 10.3318 3.743527 32.524318 -2.871232
2006-12-12 08:34:45 51°21.537 2°57.928 10.327 3.744253 32.531332 -2.871232
2006-12-12 08:34:50 51°21.544 2°57.949 10.3269 3.744253 32.531332 -2.871232
2006-12-12 08:34:54 51°21.546 2°57.966 10.3217 3.744356 32.532334 -2.871232
2006-12-12 08:35:00 51°21.553 2°57.991 10.3239 3.741973 32.510118 -2.871232
2006-12-12 08:35:05 51°21.556 2°58.011 10.3265 3.742387 32.512469 -2.871232
2006-12-12 08:35:10 51°21.56 2°58.029 10.3206 3.742595 32.513644 -2.871232
2006-12-12 08:35:15 51°21.564 2°58.047 10.315 3.742906 32.515821 -2.871232
2006-12-12 08:35:20 51°21.567 2°58.065 10.3174 3.742906 32.515821 -2.871232
2006-12-12 08:35:25 51°21.57 2°58.082 10.3167 3.743838 32.528153 -2.871232
2006-12-12 08:35:29 51°21.573 2°58.095 10.3123 3.743527 32.526805 -2.871232
2006-12-12 08:35:35 51°21.577 2°58.114 10.3123 3.74073 32.500581 -2.871232
2006-12-12 08:35:40 51°21.58 2°58.13 10.3141 3.740315 32.496573 -2.871232
2006-12-12 08:35:44 51°21.583 2°58.142 10.3152 3.741248 32.508076 -2.871232
2006-12-12 08:35:50 51°21.586 2°58.16 10.3154 3.740937 32.506727 -2.871232
2006-12-12 08:35:55 51°21.589 2°58.175 10.315 3.740937 32.506727 -2.871232
2006-12-12 08:36:00 51°21.592 2°58.189 10.3119 3.741144 32.510389 -2.871232
2006-12-12 08:36:05 51°21.595 2°58.203 10.3111 3.741766 32.519718 -2.871232
2006-12-12 08:36:09 51°21.598 2°58.214 10.3066 3.741559 32.517713 -2.871232
2006-12-12 08:36:14 51°21.601 2°58.227 10.3087 3.740833 32.510697 -2.871232
2006-12-12 08:36:20 51°21.604 2°58.242 10.3084 3.741144 32.513704 -2.871232
2006-12-12 08:36:25 51°21.607 2°58.255 10.3079 3.741144 32.513704 -2.871232
2006-12-12 08:36:30 51°21.61 2°58.268 10.3067 3.741455 32.516711 -2.871232
2006-12-12 08:36:35 51°21.612 2°58.28 10.311 3.74187 32.522378 -2.871232
2006-12-12 08:36:40 51°21.615 2°58.292 10.3161 3.742284 32.528046 -2.871232
2006-12-12 08:36:45 51°21.618 2°58.304 10.3119 3.742284 32.528876 -2.871232
2006-12-12 08:36:50 51°21.621 2°58.316 10.3084 3.742284 32.528876 -2.871232
2006-12-12 08:36:54 51°21.624 2°58.325 10.3112 3.74218 32.528703 -2.871232
2006-12-12 08:37:00 51°21.628 2°58.337 10.3084 3.741973 32.527527 -2.871232
2006-12-12 08:37:05 51°21.632 2°58.346 10.3069 3.74187 32.526525 -2.871232
2006-12-12 08:37:09 51°21.635 2°58.353 10.3153 3.741559 32.521859 -2.871232
2006-12-12 08:37:14 51°21.64 2°58.361 10.3163 3.741455 32.520857 -2.871232
2006-12-12 08:37:20 51°21.646 2°58.37 10.311 3.741766 32.525522 -2.871232
2006-12-12 08:37:25 51°21.651 2°58.375 10.3081 3.741766 32.525522 -2.871232
2006-12-12 08:37:30 51°21.656 2°58.381 10.3084 3.741662 32.525349 -2.871232
2006-12-12 08:37:35 51°21.662 2°58.386 10.313 3.741455 32.524174 -2.871232
2006-12-12 08:37:40 51°21.669 2°58.389 10.3091 3.741352 32.522342 -2.871232
2006-12-12 08:37:45 51°21.676 2°58.391 10.3084 3.741144 32.519508 -2.871232
2006-12-12 08:37:50 51°21.684 2°58.391 10.3106 3.741352 32.520683 -2.871232
2006-12-12 08:37:54 51°21.689 2°58.392 10.3122 3.741352 32.520683 -2.871232
2006-12-12 08:38:00 51°21.697 2°58.391 10.3155 3.741662 32.525349 -2.871232
2006-12-12 08:38:05 51°21.702 2°58.389 10.3137 3.74187 32.527354 -2.871232
2006-12-12 08:38:10 51°21.708 2°58.387 10.3059 3.74187 32.527354 -2.871232
2006-12-12 08:38:15 51°21.714 2°58.383 10.3035 3.742077 32.530189 -2.871232
2006-12-12 08:38:20 51°21.719 2°58.38 10.3055 3.742077 32.530189 -2.871232
2006-12-12 08:38:25 51°21.724 2°58.375 10.3069 3.741973 32.529186 -2.871232
2006-12-12 08:38:30 51°21.729 2°58.37 10.3068 3.741766 32.526352 -2.871232
2006-12-12 08:38:35 51°21.733 2°58.366 10.3095 3.74187 32.528184 -2.871232
2006-12-12 08:38:40 51°21.736 2°58.362 10.3077 3.741973 32.529186 -2.871232
2006-12-12 08:38:45 51°21.74 2°58.359 10.3099 3.741766 32.52967 -2.871232
2006-12-12 08:38:50 51°21.742 2°58.355 10.3071 3.741766 32.52967 -2.871232
2006-12-12 08:38:54 51°21.744 2°58.352 10.2953 3.741766 32.528841 -2.871232
2006-12-12 08:39:00 51°21.747 2°58.349 10.2962 3.741559 32.526006 -2.871232
2006-12-12 08:39:05 51°21.749 2°58.346 10.2946 3.741766 32.528011 -2.871232
2006-12-12 08:39:10 51°21.752 2°58.343 10.2928 3.741559 32.525176 -2.871232
2006-12-12 08:39:14 51°21.753 2°58.34 10.2924 3.741766 32.527181 -2.871232
2006-12-12 08:39:20 51°21.755 2°58.335 10.2992 3.74187 32.525696 -2.871232
2006-12-12 08:39:25 51°21.756 2°58.33 10.2979 3.74187 32.525696 -2.871232
2006-12-12 08:39:30 51°21.757 2°58.325 10.2995 3.741144 32.520337 -2.871232
2006-12-12 08:39:34 51°21.758 2°58.321 10.3154 3.740419 32.515808 -2.871232
2006-12-12 08:39:40 51°21.758 2°58.315 10.3156 3.740108 32.514459 -2.871232
2006-12-12 08:39:45 51°21.757 2°58.309 10.3262 3.739901 32.513283 -2.871232
2006-12-12 08:39:50 51°21.756 2°58.303 10.3256 3.738243 32.498072 -2.871232
2006-12-12 08:39:55 51°21.755 2°58.297 10.3314 3.738243 32.498072 -2.871232
2006-12-12 08:40:00 51°21.753 2°58.291 10.3365 3.736585 32.482033 -2.871232
2006-12-12 08:40:05 51°21.751 2°58.286 10.3365 3.73244 32.43863 -2.871232
2006-12-12 08:40:10 51°21.748 2°58.28 10.3313 3.727156 32.382573 -2.871232
2006-12-12 08:40:15 51°21.745 2°58.275 10.3351 3.722286 32.330551 -2.871232
2006-12-12 08:40:20 51°21.743 2°58.269 10.3336 3.722286 32.330551 -2.871232
2006-12-12 08:40:24 51°21.74 2°58.266 10.3475 3.718452 32.288565 -2.871232
2006-12-12 08:40:30 51°21.736 2°58.26 10.3425 3.71524 32.251781 -2.871232
2006-12-12 08:40:35 51°21.733 2°58.257 10.3469 3.714204 32.235203 -2.871232
2006-12-12 08:40:40 51°21.731 2°58.252 10.3433 3.716069 32.249104 -2.871232
2006-12-12 08:40:45 51°21.728 2°58.248 10.3399 3.716898 32.254642 -2.871232
2006-12-12 08:40:49 51°21.726 2°58.245 10.343 3.716898 32.254642 -2.871232
2006-12-12 08:40:55 51°21.723 2°58.24 10.3473 3.716898 32.252999 -2.871232
2006-12-12 08:41:00 51°21.721 2°58.237 10.3441 3.717934 32.261359 -2.871232
2006-12-12 08:41:05 51°21.72 2°58.233 10.3542 3.719902 32.279544 -2.871232
2006-12-12 08:41:10 51°21.718 2°58.23 10.3573 3.721249 32.290904 -2.871232
2006-12-12 08:41:15 51°21.717 2°58.228 10.3523 3.723011 32.307088 -2.871232
2006-12-12 08:41:20 51°21.716 2°58.225 10.3678 3.72415 32.31727 -2.871232
2006-12-12 08:41:25 51°21.714 2°58.222 10.3554 3.72415 32.31727 -2.871232
2006-12-12 08:41:30 51°21.714 2°58.219 10.351 3.724876 32.321804 -2.871232
2006-12-12 08:41:34 51°21.713 2°58.217 10.3716 3.725808 32.329985 -2.871232
2006-12-12 08:41:40 51°21.712 2°58.214 10.3674 3.727466 32.345992 -2.871232
2006-12-12 08:41:45 51°21.712 2°58.212 10.3869 3.727362 32.342521 -2.871232
2006-12-12 08:41:50 51°21.712 2°58.211 10.3613 3.72757 32.341228 -2.871232
2006-12-12 08:41:54 51°21.711 2°58.209 10.3633 3.72757 32.341228 -2.871232
2006-12-12 08:42:00 51°21.711 2°58.208 10.3803 3.728709 32.351408 -2.871232
2006-12-12 08:42:05 51°21.711 2°58.206 10.3764 3.728606 32.347937 -2.871232
2006-12-12 08:42:10 51°21.711 2°58.205 10.3788 3.728606 32.34382 -2.871232
2006-12-12 08:42:15 51°21.71 2°58.203 10.3718 3.727569 32.327237 -2.871232
2006-12-12 08:42:20 51°21.71 2°58.202 10.3642 3.727569 32.327237 -2.871232
2006-12-12 08:42:25 51°21.709 2°58.199 10.3727 3.729642 32.348059 -2.871232
2006-12-12 08:42:30 51°21.709 2°58.197 10.3752 3.730885 32.361706 -2.871232
2006-12-12 08:42:34 51°21.708 2°58.195 10.3675 3.730885 32.360882 -2.871232
2006-12-12 08:42:40 51°21.708 2°58.192 10.3759 3.730678 32.355589 -2.871232
2006-12-12 08:42:45 51°21.708 2°58.189 10.3631 3.731403 32.361765 -2.871232
2006-12-12 08:42:50 51°21.707 2°58.185 10.3813 3.732232 32.370589 -2.871232
2006-12-12 08:42:55 51°21.707 2°58.182 10.3596 3.732232 32.370589 -2.871232
2006-12-12 08:43:00 51°21.707 2°58.178 10.3658 3.733061 32.380237 -2.871232
2006-12-12 08:43:05 51°21.706 2°58.174 10.3606 3.733165 32.381237 -2.871232
2006-12-12 08:43:10 51°21.706 2°58.17 10.3809 3.733061 32.378589 -2.871232
2006-12-12 08:43:15 51°21.706 2°58.166 10.3591 3.733994 32.388414 -2.871232
2006-12-12 08:43:20 51°21.706 2°58.163 10.3681 3.734615 32.396889 -2.871232
2006-12-12 08:43:25 51°21.705 2°58.16 10.3723 3.734615 32.396889 -2.871232
2006-12-12 08:43:30 51°21.705 2°58.157 10.3701 3.734823 32.399714 -2.871232
2006-12-12 08:43:34 51°21.706 2°58.155 10.3739 3.735548 32.408366 -2.871232
2006-12-12 08:43:40 51°21.706 2°58.154 10.3604 3.735548 32.408366 -2.871232
2006-12-12 08:43:45 51°21.706 2°58.153 10.3542 3.735444 32.40654 -2.871232
2006-12-12 08:43:50 51°21.707 2°58.152 10.3469 3.735444 32.40654 -2.871232
2006-12-12 08:43:54 51°21.707 2°58.152 10.3541 3.735341 32.403891 -2.871232
2006-12-12 08:44:00 51°21.707 2°58.152 10.3521 3.734615 32.392767 -2.871232
2006-12-12 08:44:05 51°21.707 2°58.153 10.3467 3.735444 32.401592 -2.871232
2006-12-12 08:44:10 51°21.708 2°58.154 10.3575 3.735962 32.408243 -2.871232
2006-12-12 08:44:14 51°21.708 2°58.155 10.3449 3.736584 32.415894 -2.871232
2006-12-12 08:44:20 51°21.708 2°58.156 10.3502 3.736584 32.415894 -2.871232
2006-12-12 08:44:25 51°21.709 2°58.157 10.3401 3.737413 32.428024 -2.871232
2006-12-12 08:44:30 51°21.709 2°58.158 10.3506 3.738346 32.441157 -2.871232
2006-12-12 08:44:35 51°21.71 2°58.159 10.3425 3.737828 32.435328 -2.871232
2006-12-12 08:44:40 51°21.71 2°58.161 10.3355 3.738035 32.438155 -2.871232
2006-12-12 08:44:44 51°21.71 2°58.163 10.328 3.738449 32.44381 -2.871232
2006-12-12 08:44:50 51°21.711 2°58.164 10.334 3.739175 32.455773 -2.871232
2006-12-12 08:44:55 51°21.711 2°58.166 10.3289 3.739175 32.455773 -2.871232
2006-12-12 08:45:00 51°21.712 2°58.168 10.3233 3.739693 32.464084 -2.871232
2006-12-12 08:45:04 51°21.712 2°58.169 10.3272 3.739279 32.459253 -2.871232
2006-12-12 08:45:10 51°21.713 2°58.172 10.3275 3.740211 32.470743 -2.871232
2006-12-12 08:45:15 51°21.713 2°58.175 10.3195 3.740522 32.477055 -2.871232
2006-12-12 08:45:20 51°21.713 2°58.178 10.319 3.740729 32.480712 -2.871232
2006-12-12 08:45:25 51°21.714 2°58.179 10.3169 3.740729 32.480712 -2.871232
2006-12-12 08:45:29 51°21.715 2°58.181 10.3267 3.74104 32.487026 -2.871232
2006-12-12 08:45:35 51°21.716 2°58.183 10.3242 3.741351 32.492514 -2.871232
2006-12-12 08:45:40 51°21.716 2°58.185 10.3198 3.741662 32.497174 -2.871232
2006-12-12 08:45:45 51°21.717 2°58.187 10.3142 3.741558 32.499484 -2.871232
2006-12-12 08:45:49 51°21.717 2°58.188 10.3155 3.741558 32.499484 -2.871232
2006-12-12 08:45:54 51°21.718 2°58.19 10.312 3.741558 32.499484 -2.871232
2006-12-12 08:46:00 51°21.718 2°58.192 10.3125 3.741455 32.499311 -2.871232
2006-12-12 08:46:05 51°21.718 2°58.194 10.3185 3.741455 32.500139 -2.871232
2006-12-12 08:46:10 51°21.718 2°58.195 10.3134 3.741455 32.501795 -2.871232
2006-12-12 08:46:14 51°21.719 2°58.197 10.3169 3.741869 32.508288 -2.871232
2006-12-12 08:46:20 51°21.719 2°58.2 10.3146 3.741766 32.508943 -2.871232
2006-12-12 08:46:25 51°21.719 2°58.201 10.3112 3.741766 32.508943 -2.871232
2006-12-12 08:46:30 51°21.719 2°58.202 10.3161 3.741869 32.511602 -2.871232
2006-12-12 08:46:34 51°21.719 2°58.204 10.317 3.741662 32.50877 -2.871232
2006-12-12 08:46:40 51°21.719 2°58.206 10.3092 3.741559 32.506939 -2.871232
2006-12-12 08:46:45 51°21.718 2°58.207 10.3151 3.741662 32.50877 -2.871232
2006-12-12 08:46:50 51°21.717 2°58.209 10.3128 3.741662 32.509598 -2.871232
2006-12-12 08:46:55 51°21.717 2°58.21 10.3105 3.741662 32.509598 -2.871232
2006-12-12 08:47:00 51°21.716 2°58.212 10.3131 3.741559 32.508596 -2.871232
2006-12-12 08:47:05 51°21.716 2°58.213 10.3112 3.741766 32.5106 -2.871232
2006-12-12 08:47:10 51°21.715 2°58.214 10.3101 3.741662 32.509598 -2.871232
2006-12-12 08:47:15 51°21.714 2°58.215 10.311 3.741559 32.508596 -2.871232
2006-12-12 08:47:20 51°21.713 2°58.216 10.3117 3.741559 32.508596 -2.871232
2006-12-12 08:47:24 51°21.712 2°58.217 10.3117 3.741766 32.511429 -2.871232
2006-12-12 08:47:30 51°21.712 2°58.218 10.3121 3.742077 32.514435 -2.871232
2006-12-12 08:47:35 51°21.711 2°58.218 10.3256 3.741662 32.510427 -2.871232
2006-12-12 08:47:40 51°21.71 2°58.218 10.3201 3.741973 32.513433 -2.871232
2006-12-12 08:47:45 51°21.708 2°58.218 10.3117 3.741766 32.511429 -2.871232
2006-12-12 08:47:49 51°21.707 2°58.218 10.3127 3.741766 32.511429 -2.871232
2006-12-12 08:47:55 51°21.705 2°58.217 10.3128 3.741869 32.513259 -2.871232
2006-12-12 08:48:00 51°21.703 2°58.216 10.3127 3.741869 32.514088 -2.871232
2006-12-12 08:48:05 51°21.702 2°58.216 10.3127 3.741662 32.512084 -2.871232
2006-12-12 08:48:09 51°21.7 2°58.215 10.3172 3.741351 32.506592 -2.871232
2006-12-12 08:48:14 51°21.698 2°58.214 10.3204 3.741559 32.508596 -2.871232
2006-12-12 08:48:20 51°21.697 2°58.211 10.3094 3.741766 32.511429 -2.871232
2006-12-12 08:48:25 51°21.695 2°58.21 10.3123 3.741766 32.511429 -2.871232
2006-12-12 08:48:30 51°21.694 2°58.208 10.3124 3.741662 32.510427 -2.871232
2006-12-12 08:48:35 51°21.693 2°58.206 10.3127 3.741766 32.512257 -2.871232
2006-12-12 08:48:40 51°21.692 2°58.205 10.3157 3.741766 32.511429 -2.871232
2006-12-12 08:48:45 51°21.69 2°58.203 10.3144 3.741766 32.5106 -2.871232
2006-12-12 08:48:50 51°21.69 2°58.202 10.3154 3.741973 32.513433 -2.871232
2006-12-12 08:48:54 51°21.689 2°58.201 10.316 3.741973 32.513433 -2.871232
2006-12-12 08:49:00 51°21.688 2°58.199 10.3143 3.741869 32.512431 -2.871232
2006-12-12 08:49:05 51°21.688 2°58.198 10.3097 3.741973 32.513433 -2.871232
2006-12-12 08:49:10 51°21.687 2°58.198 10.3115 3.741869 32.513259 -2.871232
2006-12-12 08:49:15 51°21.686 2°58.197 10.3162 3.741973 32.513433 -2.871232
2006-12-12 08:49:20 51°21.686 2°58.196 10.3158 3.741973 32.513433 -2.871232
2006-12-12 08:49:25 51°21.685 2°58.195 10.3166 3.74218 32.516266 -2.871232
2006-12-12 08:49:30 51°21.685 2°58.194 10.3146 3.74218 32.515437 -2.871232
2006-12-12 08:49:34 51°21.685 2°58.193 10.3135 3.742284 32.516439 -2.871232
2006-12-12 08:49:40 51°21.684 2°58.192 10.3137 3.742284 32.517268 -2.871232
2006-12-12 08:49:45 51°21.684 2°58.191 10.3171 3.74218 32.515437 -2.871232
2006-12-12 08:49:50 51°21.684 2°58.19 10.3159 3.742077 32.514435 -2.871232
2006-12-12 08:49:55 51°21.684 2°58.189 10.3183 3.742077 32.514435 -2.871232
2006-12-12 08:50:00 51°21.684 2°58.188 10.3171 3.742284 32.51561 -2.871232
2006-12-12 08:50:05 51°21.683 2°58.188 10.3152 3.742284 32.51561 -2.871232
2006-12-12 08:50:09 51°21.684 2°58.188 10.3171 3.742595 32.519445 -2.871232
2006-12-12 08:50:15 51°21.683 2°58.188 10.3121 3.742388 32.517441 -2.871232
2006-12-12 08:50:20 51°21.683 2°58.188 10.3106 3.742491 32.517614 -2.871232
2006-12-12 08:50:25 51°21.683 2°58.188 10.313 3.742491 32.517614 -2.871232
2006-12-12 08:50:29 51°21.683 2°58.188 10.3136 3.742491 32.516785 -2.871232
2006-12-12 08:50:34 51°21.683 2°58.188 10.3152 3.742698 32.519618 -2.871232
2006-12-12 08:50:40 51°21.683 2°58.188 10.3107 3.742802 32.52062 -2.871232
2006-12-12 08:50:45 51°21.682 2°58.188 10.3101 3.742802 32.52062 -2.871232
2006-12-12 08:50:50 51°21.682 2°58.189 10.3101 3.743113 32.525284 -2.871232
2006-12-12 08:50:55 51°21.682 2°58.19 10.311 3.743113 32.525284 -2.871232
2006-12-12 08:51:00 51°21.682 2°58.19 10.3116 3.743009 32.524282 -2.871232
2006-12-12 08:51:05 51°21.682 2°58.191 10.3127 3.742906 32.522451 -2.871232
2006-12-12 08:51:10 51°21.682 2°58.191 10.3113 3.743009 32.524282 -2.871232
2006-12-12 08:51:15 51°21.683 2°58.192 10.3096 3.743009 32.525111 -2.871232
2006-12-12 08:51:20 51°21.683 2°58.192 10.3107 3.743009 32.525111 -2.871232
2006-12-12 08:51:25 51°21.683 2°58.193 10.3105 3.743113 32.526113 -2.871232
2006-12-12 08:51:30 51°21.683 2°58.193 10.31 3.743113 32.526113 -2.871232
2006-12-12 08:51:35 51°21.682 2°58.194 10.311 3.743009 32.52594 -2.871232
2006-12-12 08:51:40 51°21.682 2°58.194 10.3106 3.743009 32.52594 -2.871232
2006-12-12 08:51:45 51°21.682 2°58.194 10.312 3.742906 32.524938 -2.871232
2006-12-12 08:51:50 51°21.681 2°58.194 10.3108 3.742906 32.524938 -2.871232
2006-12-12 08:51:55 51°21.681 2°58.194 10.3106 3.742906 32.524938 -2.871232
2006-12-12 08:52:00 51°21.681 2°58.195 10.3107 3.742906 32.524938 -2.871232
2006-12-12 08:52:05 51°21.681 2°58.196 10.311 3.742906 32.524938 -2.871232
2006-12-12 08:52:10 51°21.681 2°58.196 10.3103 3.742802 32.523936 -2.871232
2006-12-12 08:52:14 51°21.681 2°58.196 10.309 3.742906 32.525767 -2.871232
2006-12-12 08:52:20 51°21.68 2°58.197 10.3106 3.742906 32.525767 -2.871232
2006-12-12 08:52:25 51°21.68 2°58.197 10.3101 3.742906 32.525767 -2.871232
2006-12-12 08:52:30 51°21.68 2°58.198 10.311 3.742906 32.525767 -2.871232
2006-12-12 08:52:35 51°21.679 2°58.199 10.3126 3.742802 32.523936 -2.871232
2006-12-12 08:52:40 51°21.679 2°58.199 10.3094 3.742906 32.524938 -2.871232
2006-12-12 08:52:45 51°21.678 2°58.2 10.3102 3.742906 32.525767 -2.871232
2006-12-12 08:52:50 51°21.678 2°58.2 10.3108 3.742906 32.525767 -2.871232
2006-12-12 08:52:54 51°21.678 2°58.2 10.3087 3.743009 32.526769 -2.871232
2006-12-12 08:53:00 51°21.678 2°58.2 10.3099 3.742906 32.525767 -2.871232
2006-12-12 08:53:05 51°21.677 2°58.201 10.3109 3.742802 32.524765 -2.871232
2006-12-12 08:53:10 51°21.677 2°58.201 10.313 3.743009 32.526769 -2.871232
2006-12-12 08:53:14 51°21.676 2°58.201 10.3129 3.742906 32.525767 -2.871232
2006-12-12 08:53:20 51°21.676 2°58.202 10.3137 3.742906 32.525767 -2.871232
2006-12-12 08:53:25 51°21.676 2°58.202 10.3129 3.742906 32.525767 -2.871232
2006-12-12 08:53:30 51°21.675 2°58.202 10.3142 3.742906 32.525767 -2.871232
2006-12-12 08:53:34 51°21.675 2°58.202 10.3137 3.743009 32.526769 -2.871232
2006-12-12 08:53:40 51°21.675 2°58.202 10.3095 3.743113 32.527772 -2.871232
2006-12-12 08:53:45 51°21.674 2°58.202 10.3092 3.743009 32.52594 -2.871232
2006-12-12 08:53:50 51°21.674 2°58.201 10.3116 3.743216 32.527115 -2.871232
2006-12-12 08:53:54 51°21.673 2°58.201 10.3123 3.743216 32.527115 -2.871232
2006-12-12 08:54:00 51°21.673 2°58.2 10.3115 3.743216 32.527115 -2.871232
2006-12-12 08:54:05 51°21.673 2°58.2 10.3111 3.743113 32.526113 -2.871232
2006-12-12 08:54:10 51°21.673 2°58.2 10.3122 3.743113 32.526942 -2.871232
2006-12-12 08:54:15 51°21.672 2°58.2 10.3136 3.743217 32.528774 -2.871232
2006-12-12 08:54:20 51°21.672 2°58.199 10.3113 3.743113 32.526942 -2.871232
2006-12-12 08:54:24 51°21.671 2°58.199 10.3101 3.743113 32.526942 -2.871232
2006-12-12 08:54:29 51°21.671 2°58.198 10.3105 3.743009 32.52594 -2.871232
2006-12-12 08:54:35 51°21.671 2°58.197 10.3116 3.743113 32.526942 -2.871232
2006-12-12 08:54:40 51°21.671 2°58.197 10.3127 3.743113 32.526942 -2.871232
2006-12-12 08:54:45 51°21.671 2°58.196 10.3177 3.743009 32.525111 -2.871232
2006-12-12 08:54:50 51°21.671 2°58.195 10.3184 3.743009 32.525111 -2.871232
2006-12-12 08:54:55 51°21.671 2°58.194 10.3147 3.743009 32.525111 -2.871232
2006-12-12 08:55:00 51°21.67 2°58.194 10.3124 3.743009 32.52594 -2.871232
2006-12-12 08:55:05 51°21.67 2°58.194 10.3111 3.743217 32.527945 -2.871232
2006-12-12 08:55:10 51°21.671 2°58.193 10.3136 3.743113 32.526113 -2.871232
2006-12-12 08:55:14 51°21.671 2°58.193 10.3119 3.743113 32.524455 -2.871232
2006-12-12 08:55:20 51°21.671 2°58.192 10.3135 3.743113 32.522797 -2.871232
2006-12-12 08:55:25 51°21.671 2°58.191 10.311 3.743113 32.522797 -2.871232
2006-12-12 08:55:30 51°21.672 2°58.19 10.3093 3.743424 32.526632 -2.871232
2006-12-12 08:55:34 51°21.672 2°58.188 10.3099 3.743113 32.524455 -2.871232
2006-12-12 08:55:40 51°21.672 2°58.187 10.312 3.743113 32.525284 -2.871232
2006-12-12 08:55:45 51°21.673 2°58.186 10.3087 3.743009 32.525111 -2.871232
2006-12-12 08:55:50 51°21.673 2°58.184 10.3118 3.743009 32.525111 -2.871232
2006-12-12 08:55:54 51°21.674 2°58.183 10.3089 3.743009 32.525111 -2.871232
2006-12-12 08:56:00 51°21.675 2°58.181 10.3102 3.742906 32.524938 -2.871232
2006-12-12 08:56:05 51°21.675 2°58.18 10.3089 3.742906 32.525767 -2.871232
2006-12-12 08:56:10 51°21.676 2°58.178 10.3092 3.742906 32.525767 -2.871232
2006-12-12 08:56:14 51°21.676 2°58.177 10.3077 3.742906 32.525767 -2.871232
2006-12-12 08:56:20 51°21.677 2°58.175 10.307 3.742906 32.525767 -2.871232
2006-12-12 08:56:24 51°21.678 2°58.173 10.3089 3.742698 32.524592 -2.871232
2006-12-12 08:56:30 51°21.678 2°58.172 10.3096 3.742906 32.526596 -2.871232
2006-12-12 08:56:35 51°21.679 2°58.171 10.3098 3.742802 32.525594 -2.871232
2006-12-12 08:56:40 51°21.679 2°58.17 10.3085 3.743009 32.527599 -2.871232
2006-12-12 08:56:45 51°21.68 2°58.17 10.307 3.742906 32.527426 -2.871232
2006-12-12 08:56:50 51°21.68 2°58.169 10.3079 3.743113 32.52943 -2.871232
2006-12-12 08:56:54 51°21.68 2°58.168 10.3071 3.743113 32.52943 -2.871232
2006-12-12 08:57:00 51°21.681 2°58.167 10.3065 3.742906 32.527426 -2.871232
2006-12-12 08:57:05 51°21.682 2°58.166 10.3055 3.742802 32.526423 -2.871232
2006-12-12 08:57:10 51°21.682 2°58.165 10.3058 3.742906 32.527426 -2.871232
2006-12-12 08:57:15 51°21.683 2°58.164 10.3054 3.742906 32.527426 -2.871232
2006-12-12 08:57:20 51°21.684 2°58.163 10.3054 3.742906 32.528255 -2.871232
2006-12-12 08:57:24 51°21.684 2°58.162 10.3064 3.742906 32.528255 -2.871232
2006-12-12 08:57:30 51°21.685 2°58.16 10.3069 3.742802 32.528082 -2.871232
2006-12-12 08:57:34 51°21.686 2°58.16 10.3076 3.742906 32.529084 -2.871232
2006-12-12 08:57:40 51°21.686 2°58.158 10.3052 3.742698 32.527909 -2.871232
2006-12-12 08:57:45 51°21.687 2°58.157 10.3067 3.742698 32.527909 -2.871232
2006-12-12 08:57:50 51°21.687 2°58.156 10.3069 3.742906 32.529913 -2.871232
2006-12-12 08:57:54 51°21.688 2°58.155 10.3068 3.742906 32.529913 -2.871232
2006-12-12 08:58:00 51°21.688 2°58.154 10.3061 3.742802 32.528911 -2.871232
2006-12-12 08:58:05 51°21.689 2°58.153 10.3084 3.742802 32.528911 -2.871232
2006-12-12 08:58:09 51°21.689 2°58.153 10.309 3.742802 32.528911 -2.871232
2006-12-12 08:58:15 51°21.69 2°58.152 10.3058 3.742802 32.528911 -2.871232
2006-12-12 08:58:20 51°21.691 2°58.151 10.306 3.742802 32.528911 -2.871232
2006-12-12 08:58:25 51°21.691 2°58.15 10.308 3.742906 32.529913 -2.871232
2006-12-12 08:58:30 51°21.692 2°58.149 10.306 3.742906 32.529913 -2.871232
2006-12-12 08:58:34 51°21.693 2°58.149 10.3078 3.742906 32.529913 -2.871232
2006-12-12 08:58:40 51°21.693 2°58.149 10.3051 3.742802 32.528082 -2.871232
2006-12-12 08:58:45 51°21.694 2°58.149 10.3074 3.742906 32.529913 -2.871232
2006-12-12 08:58:50 51°21.695 2°58.148 10.3066 3.742906 32.529913 -2.871232
2006-12-12 08:58:55 51°21.696 2°58.148 10.3067 3.742906 32.529913 -2.871232
2006-12-12 08:59:00 51°21.696 2°58.148 10.3074 3.742802 32.528911 -2.871232
2006-12-12 08:59:04 51°21.697 2°58.149 10.3067 3.742802 32.528911 -2.871232
2006-12-12 08:59:10 51°21.697 2°58.149 10.3065 3.742906 32.529913 -2.871232
2006-12-12 08:59:15 51°21.699 2°58.149 10.3073 3.742802 32.528082 -2.871232
2006-12-12 08:59:20 51°21.699 2°58.149 10.3078 3.742906 32.529084 -2.871232
2006-12-12 08:59:24 51°21.699 2°58.15 10.3076 3.742906 32.529084 -2.871232
2006-12-12 08:59:30 51°21.7 2°58.15 10.3081 3.742906 32.529913 -2.871232
2006-12-12 08:59:35 51°21.701 2°58.151 10.3074 3.742906 32.529913 -2.871232
2006-12-12 08:59:40 51°21.702 2°58.152 10.3084 3.742906 32.529913 -2.871232
2006-12-12 08:59:44 51°21.702 2°58.152 10.3068 3.742906 32.529913 -2.871232
2006-12-12 08:59:50 51°21.703 2°58.153 10.3071 3.742906 32.529084 -2.871232
2006-12-12 08:59:54 51°21.703 2°58.154 10.3101 3.742906 32.529084 -2.871232
2006-12-12 09:00:00 51°21.704 2°58.155 10.3078 3.743009 32.530086 -2.871232
2006-12-12 09:00:05 51°21.705 2°58.156 10.3084 3.743009 32.530086 -2.871232
2006-12-12 09:00:09 51°21.705 2°58.158 10.3062 3.743113 32.530259 -2.871232
2006-12-12 09:00:15 51°21.705 2°58.159 10.3064 3.743113 32.530259 -2.871232
2006-12-12 09:00:20 51°21.706 2°58.161 10.3066 3.743113 32.530259 -2.871232
2006-12-12 09:00:25 51°21.707 2°58.162 10.3076 3.743113 32.530259 -2.871232
2006-12-12 09:00:30 51°21.707 2°58.164 10.3078 3.743009 32.529257 -2.871232
2006-12-12 09:00:34 51°21.707 2°58.165 10.3071 3.743113 32.531089 -2.871232
2006-12-12 09:00:40 51°21.708 2°58.167 10.3086 3.742906 32.529084 -2.871232
2006-12-12 09:00:44 51°21.709 2°58.169 10.3063 3.743009 32.530086 -2.871232
2006-12-12 09:00:50 51°21.709 2°58.171 10.3071 3.743113 32.531089 -2.871232
2006-12-12 09:00:55 51°21.71 2°58.172 10.3098 3.743113 32.531089 -2.871232
2006-12-12 09:01:00 51°21.711 2°58.174 10.3094 3.742906 32.528255 -2.871232
2006-12-12 09:01:04 51°21.711 2°58.175 10.3095 3.743113 32.530259 -2.871232
2006-12-12 09:01:10 51°21.711 2°58.177 10.307 3.743009 32.530086 -2.871232
2006-12-12 09:01:15 51°21.712 2°58.179 10.3078 3.743113 32.531089 -2.871232
2006-12-12 09:01:20 51°21.713 2°58.181 10.3076 3.743113 32.531089 -2.871232
2006-12-12 09:01:24 51°21.712 2°58.182 10.3074 3.743113 32.531089 -2.871232
2006-12-12 09:01:29 51°21.713 2°58.183 10.3074 3.743113 32.530259 -2.871232
2006-12-12 09:01:35 51°21.713 2°58.186 10.3071 3.743113 32.530259 -2.871232
2006-12-12 09:01:40 51°21.714 2°58.188 10.3063 3.743217 32.531262 -2.871232
2006-12-12 09:01:45 51°21.714 2°58.189 10.3054 3.743113 32.530259 -2.871232
2006-12-12 09:01:49 51°21.715 2°58.19 10.3069 3.743113 32.530259 -2.871232
2006-12-12 09:01:54 51°21.715 2°58.192 10.3081 3.743217 32.531262 -2.871232
2006-12-12 09:02:00 51°21.715 2°58.193 10.3068 3.743113 32.530259 -2.871232
2006-12-12 09:02:05 51°21.716 2°58.194 10.3061 3.743009 32.530086 -2.871232
2006-12-12 09:02:09 51°21.716 2°58.196 10.3058 3.743113 32.531089 -2.871232
2006-12-12 09:02:14 51°21.716 2°58.196 10.3067 3.742906 32.529084 -2.871232
2006-12-12 09:02:20 51°21.716 2°58.198 10.3057 3.742906 32.529084 -2.871232
2006-12-12 09:02:25 51°21.716 2°58.2 10.3062 3.742906 32.529084 -2.871232
2006-12-12 09:02:30 51°21.716 2°58.2 10.3056 3.742906 32.529084 -2.871232
2006-12-12 09:02:34 51°21.716 2°58.201 10.3054 3.742802 32.528082 -2.871232
2006-12-12 09:02:40 51°21.716 2°58.202 10.3047 3.742802 32.528911 -2.871232
2006-12-12 09:02:45 51°21.716 2°58.203 10.3063 3.742802 32.528082 -2.871232
2006-12-12 09:02:50 51°21.715 2°58.205 10.3047 3.742802 32.528082 -2.871232
2006-12-12 09:02:55 51°21.715 2°58.206 10.3048 3.742802 32.528082 -2.871232
2006-12-12 09:03:00 51°21.715 2°58.207 10.3049 3.742906 32.529084 -2.871232
2006-12-12 09:03:04 51°21.715 2°58.209 10.3051 3.742802 32.528911 -2.871232
2006-12-12 09:03:10 51°21.715 2°58.21 10.3057 3.742802 32.528911 -2.871232
2006-12-12 09:03:15 51°21.714 2°58.212 10.3053 3.742698 32.527909 -2.871232
2006-12-12 09:03:20 51°21.714 2°58.213 10.3053 3.742698 32.527909 -2.871232
2006-12-12 09:03:25 51°21.714 2°58.215 10.3055 3.742698 32.527909 -2.871232
2006-12-12 09:03:30 51°21.714 2°58.215 10.3052 3.742698 32.527909 -2.871232
2006-12-12 09:03:35 51°21.714 2°58.217 10.3043 3.742802 32.528911 -2.871232
2006-12-12 09:03:40 51°21.713 2°58.218 10.3053 3.742802 32.528082 -2.871232
2006-12-12 09:03:44 51°21.713 2°58.219 10.3036 3.742698 32.52708 -2.871232
2006-12-12 09:03:50 51°21.712 2°58.22 10.3058 3.742698 32.52708 -2.871232
2006-12-12 09:03:55 51°21.711 2°58.221 10.3055 3.742698 32.52708 -2.871232
2006-12-12 09:04:00 51°21.711 2°58.221 10.304 3.742698 32.52708 -2.871232
2006-12-12 09:04:05 51°21.709 2°58.223 10.3043 3.742595 32.526077 -2.871232
2006-12-12 09:04:10 51°21.709 2°58.223 10.3044 3.742595 32.526077 -2.871232
2006-12-12 09:04:14 51°21.708 2°58.224 10.305 3.742491 32.525075 -2.871232
2006-12-12 09:04:20 51°21.707 2°58.225 10.3039 3.742491 32.525075 -2.871232
2006-12-12 09:04:25 51°21.705 2°58.225 10.3039 3.742491 32.525075 -2.871232
2006-12-12 09:04:30 51°21.704 2°58.226 10.3042 3.742595 32.526077 -2.871232
2006-12-12 09:04:34 51°21.703 2°58.226 10.3041 3.742595 32.526077 -2.871232
2006-12-12 09:04:40 51°21.702 2°58.227 10.3032 3.742491 32.525904 -2.871232
2006-12-12 09:04:45 51°21.701 2°58.227 10.3029 3.742595 32.526907 -2.871232
2006-12-12 09:04:50 51°21.7 2°58.227 10.3036 3.742595 32.526907 -2.871232
2006-12-12 09:04:54 51°21.699 2°58.227 10.304 3.742595 32.526907 -2.871232
2006-12-12 09:05:00 51°21.697 2°58.228 10.3028 3.742491 32.525904 -2.871232
2006-12-12 09:05:05 51°21.696 2°58.227 10.3043 3.742491 32.525904 -2.871232
2006-12-12 09:05:10 51°21.694 2°58.226 10.304 3.74218 32.522898 -2.871232
2006-12-12 09:05:15 51°21.692 2°58.225 10.3033 3.742284 32.5239 -2.871232
2006-12-12 09:05:20 51°21.69 2°58.223 10.303 3.742284 32.5239 -2.871232
2006-12-12 09:05:24 51°21.689 2°58.223 10.3037 3.742077 32.522724 -2.871232
2006-12-12 09:05:30 51°21.687 2°58.221 10.3038 3.742077 32.522724 -2.871232
2006-12-12 09:05:35 51°21.686 2°58.221 10.3027 3.741973 32.520893 -2.871232
2006-12-12 09:05:40 51°21.685 2°58.219 10.3026 3.74187 32.519891 -2.871232
2006-12-12 09:05:45 51°21.684 2°58.218 10.3037 3.741766 32.518889 -2.871232
2006-12-12 09:05:49 51°21.683 2°58.217 10.3033 3.741766 32.518889 -2.871232
2006-12-12 09:05:54 51°21.682 2°58.216 10.3035 3.741662 32.518715 -2.871232
2006-12-12 09:06:00 51°21.681 2°58.214 10.3028 3.741662 32.518715 -2.871232
2006-12-12 09:06:05 51°21.68 2°58.212 10.3018 3.741455 32.51754 -2.871232
2006-12-12 09:06:10 51°21.679 2°58.211 10.3013 3.741455 32.51754 -2.871232
2006-12-12 09:06:15 51°21.678 2°58.21 10.3025 3.741351 32.516538 -2.871232
2006-12-12 09:06:20 51°21.678 2°58.209 10.3021 3.741455 32.51754 -2.871232
2006-12-12 09:06:25 51°21.677 2°58.208 10.3019 3.741455 32.51754 -2.871232
2006-12-12 09:06:30 51°21.677 2°58.207 10.3006 3.741248 32.515535 -2.871232
2006-12-12 09:06:34 51°21.677 2°58.206 10.3012 3.741248 32.515535 -2.871232
2006-12-12 09:06:40 51°21.677 2°58.205 10.3001 3.741455 32.518369 -2.871232
2006-12-12 09:06:45 51°21.676 2°58.205 10.3011 3.741144 32.516191 -2.871232
2006-12-12 09:06:50 51°21.676 2°58.205 10.3008 3.740937 32.515016 -2.871232
2006-12-12 09:06:54 51°21.676 2°58.205 10.3012 3.740937 32.515016 -2.871232
2006-12-12 09:07:00 51°21.676 2°58.205 10.3017 3.741144 32.51702 -2.871232
2006-12-12 09:07:05 51°21.676 2°58.205 10.3004 3.741144 32.51702 -2.871232
2006-12-12 09:07:10 51°21.676 2°58.205 10.3001 3.741041 32.516018 -2.871232
2006-12-12 09:07:14 51°21.676 2°58.205 10.3016 3.740937 32.514187 -2.871232
2006-12-12 09:07:20 51°21.676 2°58.205 10.302 3.740937 32.514187 -2.871232
2006-12-12 09:07:25 51°21.676 2°58.206 10.3008 3.741041 32.516018 -2.871232
2006-12-12 09:07:30 51°21.676 2°58.206 10.3012 3.741041 32.516018 -2.871232
2006-12-12 09:07:34 51°21.676 2°58.206 10.3001 3.740937 32.515016 -2.871232
2006-12-12 09:07:40 51°21.676 2°58.206 10.3007 3.741041 32.516847 -2.871232
2006-12-12 09:07:45 51°21.675 2°58.206 10.3009 3.740833 32.514842 -2.871232
2006-12-12 09:07:50 51°21.675 2°58.206 10.3004 3.740937 32.515845 -2.871232
2006-12-12 09:07:55 51°21.675 2°58.206 10.2997 3.740937 32.515845 -2.871232
2006-12-12 09:08:00 51°21.676 2°58.207 10.2994 3.74073 32.513011 -2.871232
2006-12-12 09:08:05 51°21.675 2°58.207 10.3 3.740833 32.514013 -2.871232
2006-12-12 09:08:10 51°21.675 2°58.208 10.302 3.740937 32.515845 -2.871232
2006-12-12 09:08:15 51°21.675 2°58.21 10.3003 3.740626 32.512838 -2.871232
2006-12-12 09:08:20 51°21.675 2°58.211 10.2989 3.74073 32.51384 -2.871232
2006-12-12 09:08:24 51°21.675 2°58.211 10.3029 3.74073 32.51384 -2.871232
2006-12-12 09:08:30 51°21.675 2°58.213 10.3004 3.740833 32.515672 -2.871232
2006-12-12 09:08:35 51°21.675 2°58.214 10.3009 3.74073 32.514669 -2.871232
2006-12-12 09:08:40 51°21.675 2°58.215 10.2994 3.74073 32.51384 -2.871232
2006-12-12 09:08:44 51°21.675 2°58.216 10.3004 3.74073 32.514669 -2.871232
2006-12-12 09:08:50 51°21.675 2°58.217 10.2991 3.74073 32.514669 -2.871232
2006-12-12 09:08:54 51°21.675 2°58.218 10.2991 3.74073 32.514669 -2.871232
2006-12-12 09:09:00 51°21.675 2°58.22 10.2989 3.740626 32.512838 -2.871232
2006-12-12 09:09:05 51°21.675 2°58.221 10.2994 3.740833 32.514842 -2.871232
2006-12-12 09:09:09 51°21.675 2°58.221 10.2992 3.740626 32.512838 -2.871232
2006-12-12 09:09:15 51°21.675 2°58.222 10.2981 3.74073 32.514669 -2.871232
2006-12-12 09:09:20 51°21.675 2°58.223 10.2982 3.740523 32.512664 -2.871232
2006-12-12 09:09:25 51°21.675 2°58.224 10.2985 3.740523 32.512664 -2.871232
2006-12-12 09:09:30 51°21.675 2°58.225 10.2962 3.740419 32.511662 -2.871232
2006-12-12 09:09:34 51°21.674 2°58.226 10.2967 3.740419 32.511662 -2.871232